[{"header": {"dx": 0.06612293990616946, "dy": 0.0552356325346848, "nx": 98, "ny": 59, "la1": 35.046912555036876, "la2": 31.78801023549047, "lo1": -121.43107172385933, "lo2": -114.95102361305473, "refTime": "2026041705", "parameterCategory": 1, "parameterNumber": 2}, "data": [9.71, 9.53, 10.17, 10.25, 9.84, 9.54, 9.12, 9.09, 8.65, 7.43, 6.4, 4.71, 0.0, 0.0, -8.53, -10.4, -10.4, -10.0, -10.4, -8.85, -10.79, -10.79, -9.67, -9.3, -7.9, -6.97, -5.4, -3.04, -2.37, 0.0, 0.0, 3.14, 6.94, 9.3, 9.97, 9.54, 9.21, 9.21, 9.39, 3.25, 0.0, 0.0, 4.32, 6.94, 11.06, 13.92, 16.82, 19.01, 18.0, 11.09, 8.31, 9.6, 11.54, 11.77, 11.77, 12.35, 12.82, 13.42, 13.99, 13.99, 14.3, 13.99, 12.89, 13.59, 13.59, 14.3, 15.12, 15.27, 15.47, 15.78, 15.82, 15.51, 15.6, 15.59, 15.59, 15.61, 14.72, 14.3, 14.72, 14.7, 14.3, 13.41, 5.8, 3.96, 5.4, 7.26, 10.35, 9.58, 10.27, 10.17, 11.2, 11.83, 11.88, 12.65, 12.65, 12.27, 11.26, 11.6, 10.01, 10.01, 9.84, 10.25, 9.84, 9.42, 8.74, 8.68, 8.22, 7.73, 6.64, 5.48, 3.25, 5.6, 0.0, -12.07, -9.6, -10.8, -8.53, -6.45, -9.48, -9.17, -10.79, -10.79, -7.59, -7.9, -6.97, -5.4, -5.4, -3.04, 0.0, 0.0, 3.96, 8.8, 7.63, 8.67, 7.89, 8.82, 9.21, 8.55, 2.45, 2.2, 4.55, 7.97, 12.59, 16.44, 18.78, 18.68, 8.31, 8.57, 9.6, 10.75, 10.75, 11.36, 11.36, 12.35, 12.82, 12.82, 13.74, 14.24, 13.99, 13.29, 13.29, 13.29, 13.29, 14.53, 15.12, 15.27, 15.74, 15.82, 16.26, 15.95, 16.05, 15.2, 15.2, 14.75, 14.75, 14.3, 14.72, 14.7, 14.3, 13.41, 5.8, 3.96, 5.4, 7.26, 10.35, 9.58, 10.27, 10.17, 11.2, 11.83, 11.88, 12.65, 12.65, 12.27, 11.26, 11.6, 10.01, 10.01, 10.32, 9.92, 10.25, 10.21, 9.17, 9.12, 8.43, 7.98, 7.21, 4.81, 5.15, 7.19, 8.22, 11.62, 0.0, -5.2, -2.93, -4.1, -6.97, -8.85, -9.77, -9.48, -9.8, -7.59, -7.59, -5.95, -6.2, -4.32, -5.48, -3.69, -4.52, 0.0, 6.01, 7.44, 7.89, 8.48, 9.04, 9.97, 6.7, 5.3, 7.56, 10.9, 14.55, 15.17, 16.91, 8.05, 8.18, 9.73, 10.75, 10.75, 10.75, 11.44, 10.43, 12.0, 12.45, 13.2, 13.74, 13.74, 13.42, 12.65, 12.65, 13.03, 13.59, 14.24, 14.84, 14.95, 15.3, 15.97, 15.98, 16.06, 15.65, 15.2, 14.75, 14.75, 15.2, 15.2, 14.28, 14.69, 14.3, 12.72, 9.17, 0.0, 2.28, 6.45, 8.59, 9.7, 9.77, 11.02, 12.27, 12.27, 11.9, 11.6, 11.64, 10.91, 11.04, 11.02, 10.01, 10.01, 10.32, 10.39, 10.25, 10.34, 9.95, 9.54, 8.86, 7.98, 7.5, 6.64, 5.31, 5.6, 8.53, 8.22, 8.22, 0.0, 0.0, -2.93, -2.71, -6.2, -7.9, -8.41, -9.16, -10.37, -9.2, -8.18, -5.46, -5.0, -5.4, -5.46, -7.0, -8.68, 0.0, 5.95, 7.27, 9.2, 10.01, 10.43, 10.99, 10.66, 9.91, 10.7, 12.37, 13.86, 11.09, 11.17, 10.43, 10.43, 10.43, 10.75, 11.2, 10.43, 10.43, 11.1, 13.03, 13.74, 13.74, 13.42, 13.03, 12.65, 12.65, 12.65, 13.43, 14.42, 14.95, 15.12, 16.91, 17.61, 16.73, 15.62, 15.65, 14.75, 14.25, 13.63, 14.58, 15.17, 15.17, 13.79, 12.89, 12.45, 7.19, 0.0, 0.0, 2.28, 7.54, 8.75, 8.65, 11.28, 12.52, 11.9, 10.9, 10.24, 9.96, 10.38, 10.94, 10.99, 10.01, 10.32, 10.32, 10.39, 10.39, 10.61, 10.7, 10.32, 8.86, 8.83, 7.73, 6.2, 5.31, 5.8, 6.7, 6.7, 6.45, 3.82, 0.0, 0.0, -3.14, -8.85, -8.22, -9.97, -9.1, -9.42, -10.01, -8.53, -3.53, -2.49, -2.1, -3.92, -5.2, -4.65, 0.0, 4.52, 6.8, 8.05, 9.47, 10.25, 11.29, 10.75, 12.45, 13.86, 13.72, 13.32, 13.15, 12.79, 11.52, 10.75, 10.43, 10.99, 10.12, 10.43, 11.2, 12.27, 13.29, 13.99, 13.74, 13.59, 12.9, 11.9, 11.9, 13.19, 13.62, 16.12, 16.55, 16.12, 17.52, 19.44, 19.08, 17.61, 18.01, 17.43, 15.55, 12.42, 13.27, 14.14, 13.83, 13.23, 11.92, 11.6, 8.53, 0.0, -3.53, 0.0, 5.86, 7.78, 10.18, 11.82, 11.87, 10.9, 9.9, 9.17, 9.17, 10.09, 10.79, 10.73, 10.01, 10.32, 10.32, 10.39, 10.39, 10.73, 10.34, 10.32, 9.66, 9.09, 8.65, 7.21, 8.58, 7.19, 6.94, 5.4, 5.4, 5.4, 2.37, 0.0, -2.82, -6.7, -9.48, -11.16, -10.73, -9.42, -8.53, -6.21, -3.14, 0.0, 0.0, 0.0, -2.49, -2.82, 0.0, 1.06, 2.4, 7.95, 9.49, 7.93, 6.21, 10.12, 13.59, 14.3, 14.3, 14.64, 13.56, 11.9, 10.12, 11.17, 11.09, 10.82, 10.82, 10.99, 12.0, 12.51, 13.48, 12.9, 13.59, 13.43, 12.11, 11.72, 13.19, 14.28, 15.68, 16.55, 17.2, 15.96, 15.96, 19.23, 21.25, 19.3, 17.58, 18.41, 18.27, 16.47, 12.72, 12.42, 12.79, 12.92, 10.48, 8.82, 7.27, 0.0, -1.28, 0.97, 5.06, 8.84, 10.98, 11.06, 10.12, 10.18, 9.85, 8.67, 8.3, 9.48, 10.37, 10.73, 10.78, 10.78, 10.78, 10.84, 10.84, 10.73, 10.8, 10.7, 10.43, 9.25, 8.65, 6.98, 7.36, 9.17, 9.48, 6.45, 5.4, 6.44, 4.93, 4.24, 1.5, -4.71, -9.8, -9.17, -8.15, -6.76, -6.16, -4.24, -3.44, -2.95, 0.0, 3.11, 2.39, 0.0, 0.0, 0.0, 1.04, 5.28, 6.45, 5.7, 5.6, 5.8, 7.36, 11.87, 14.53, 14.9, 11.38, 11.68, 9.8, 11.09, 11.44, 11.09, 11.17, 12.27, 12.42, 12.39, 12.79, 13.57, 13.28, 12.87, 12.45, 12.85, 14.66, 15.87, 16.31, 16.05, 16.39, 15.27, 14.84, 17.42, 20.21, 19.33, 16.58, 16.31, 16.87, 16.95, 15.15, 12.56, 12.25, 12.72, 10.73, 8.22, 7.1, 3.18, 0.93, 2.87, 6.28, 8.74, 10.43, 10.25, 9.3, 9.95, 9.4, 7.79, 4.98, 6.67, 9.42, 9.89, 10.52, 10.52, 10.84, 10.84, 10.84, 11.17, 10.8, 10.87, 10.51, 9.77, 8.83, 6.57, 8.94, 8.05, 9.8, 8.53, 6.44, 7.44, 6.43, 6.94, 9.77, 11.62, 3.14, -8.31, -8.45, -5.86, -4.9, -5.08, -5.2, -5.0, -2.19, 0.0, 2.71, 2.1, 2.42, 0.0, 0.0, 2.19, 5.6, 5.98, 5.0, 5.4, 5.8, 7.69, 14.75, 5.09, 9.39, 12.36, 11.33, 12.27, 10.01, 10.73, 10.82, 11.53, 12.74, 12.98, 12.98, 13.44, 13.15, 12.71, 12.27, 13.34, 15.12, 15.34, 15.41, 15.77, 16.27, 15.34, 14.69, 15.65, 17.88, 18.33, 16.09, 15.65, 15.17, 14.73, 14.3, 13.36, 12.18, 12.96, 14.53, 11.09, 7.73, 5.29, 3.73, 4.17, 6.24, 8.62, 9.54, 9.39, 9.16, 8.9, 7.69, 0.0, 0.0, 6.94, 8.02, 8.69, 10.52, 10.52, 10.84, 10.84, 11.17, 11.17, 10.8, 10.87, 10.51, 10.15, 8.99, 7.13, 6.16, 6.0, 6.65, 5.8, 6.65, 6.65, 5.8, 7.51, 10.41, 12.52, 12.96, 13.86, 0.0, -6.94, -4.88, -6.24, -7.85, -5.32, -1.44, 0.0, 1.25, 1.33, 0.0, 0.0, 0.0, 1.76, 3.68, 2.71, 0.0, 0.0, 0.0, 13.41, -0.0, -0.0, 11.38, 14.13, 13.8, 11.87, 11.52, 10.12, 11.16, 12.39, 12.74, 13.32, 13.75, 12.88, 12.44, 12.52, 12.52, 15.2, 15.08, 15.04, 14.79, 15.96, 16.99, 16.04, 14.75, 14.58, 15.93, 16.43, 16.51, 15.62, 14.72, 14.16, 13.72, 12.85, 13.44, 14.42, 14.84, 12.9, 9.7, 6.88, 5.02, 5.71, 6.32, 8.74, 9.16, 8.58, 7.67, 6.21, 0.0, -9.48, 0.0, 6.63, 7.26, 8.02, 10.25, 10.84, 10.84, 10.84, 11.17, 11.17, 11.23, 10.87, 10.3, 10.23, 9.5, 8.76, 7.69, 5.8, 5.31, 4.98, 5.15, 4.74, 3.36, 3.14, 3.04, 4.93, 10.12, 12.72, 9.48, 0.0, -5.9, -8.22, -8.05, -3.82, 0.0, 0.0, 0.0, -2.37, -3.68, 0.0, 2.6, 2.83, 0.0, 0.0, -12.07, 12.52, 12.07, 11.62, 11.62, 12.96, 13.41, 12.79, 13.02, 11.06, 11.52, 10.43, 11.9, 12.39, 13.15, 14.16, 13.86, 12.96, 12.42, 12.42, 14.75, 16.31, 15.59, 13.8, 14.39, 16.7, 17.35, 15.91, 13.8, 13.8, 13.99, 15.12, 15.82, 15.78, 15.04, 13.05, 12.33, 11.62, 12.22, 13.78, 15.18, 15.94, 12.24, 7.88, 6.2, 6.65, 7.34, 7.85, 8.38, 7.9, 7.96, 3.04, -6.94, -4.81, 3.14, 6.72, 7.36, 7.51, 10.57, 10.57, 10.84, 11.25, 11.58, 11.17, 11.23, 10.65, 10.59, 10.3, 9.95, 9.66, 9.23, 8.1, 7.6, 5.81, 5.99, 5.31, 5.18, 4.66, 3.07, 2.21, 2.43, 3.96, 5.8, 0.0, -3.25, -6.95, -5.29, -3.04, -1.98, -5.46, -9.83, -8.8, -6.14, -4.32, 0.0, 11.62, 11.62, 12.52, -0.0, -0.0, 11.62, 12.07, 11.62, 11.62, 12.07, 5.6, 4.1, 6.0, 7.59, 10.05, 12.57, 13.8, 14.94, 16.22, 16.31, 13.86, 10.96, 13.41, 14.51, 12.64, 10.59, 11.38, 12.22, 14.11, 15.17, 14.88, 14.61, 12.86, 13.53, 14.31, 15.61, 15.27, 14.03, 11.81, 10.09, 9.9, 12.18, 13.77, 14.42, 15.27, 15.27, 8.25, 6.66, 7.43, 9.12, 9.27, 9.16, 8.38, 8.85, 3.96, -3.04, 0.0, 3.18, 6.15, 6.96, 4.81, 10.57, 10.57, 10.84, 11.25, 11.58, 11.58, 11.62, 10.65, 10.99, 10.59, 10.3, 10.35, 10.3, 10.25, 10.27, 9.87, 9.17, 8.32, 8.49, 8.05, 8.31, 7.73, 5.5, 4.3, 3.25, 3.96, 0.0, 8.49, -10.73, -9.6, -10.0, -10.73, -9.6, -10.08, -10.28, -8.58, -8.93, -11.62, 11.62, -0.0, 5.6, 5.4, 10.4, 11.62, 10.73, 10.28, -0.0, -0.0, -0.0, -0.0, 3.47, 7.4, 11.27, 14.22, 13.59, 13.59, 15.71, 16.79, 12.07, -0.0, -0.0, 5.8, 8.47, 6.54, 7.2, 8.06, 11.09, 12.65, 12.35, 12.9, 13.48, 13.53, 14.75, 14.61, 10.99, 9.97, 9.81, 11.93, 12.86, 13.58, 14.61, 15.83, 16.99, 3.51, 5.39, 9.2, 9.67, 8.43, 8.68, 8.51, 6.63, 4.32, 0.0, 0.0, 3.96, 5.43, 4.55, 0.0, 10.57, 10.57, 10.97, 11.58, 11.58, 11.58, 11.62, 11.33, 10.99, 10.69, 11.03, 10.35, 10.3, 10.98, 11.7, 12.71, 12.65, 12.09, 11.21, 11.39, 11.64, 13.19, 13.41, 13.19, 13.57, 13.32, 13.15, 12.96, 5.4, -9.64, -10.96, -11.18, -10.41, -9.97, -8.55, -9.75, -9.2, -5.0, -0.0, -0.0, -0.0, -0.0, 7.9, 9.83, 10.28, -7.59, -5.2, -5.4, -0.0, -0.0, -0.0, 6.0, 10.12, 13.59, 15.19, 12.96, 11.16, 18.24, 16.09, -5.4, -1.78, 3.24, 5.01, 4.62, 3.01, 4.52, 8.3, 11.2, 12.89, 13.89, 14.15, 15.7, 13.39, 11.62, 9.04, 10.4, 12.27, 13.65, 13.65, 14.79, 14.79, 16.31, 15.61, 0.0, 0.0, 8.4, 10.56, 9.01, 7.71, 7.36, 6.73, 2.82, 1.58, 2.82, 5.18, 4.43, 2.13, 0.0, 10.57, 11.29, 11.58, 11.58, 11.58, 11.58, 11.62, 11.33, 11.66, 11.36, 11.03, 10.7, 10.7, 10.98, 11.7, 13.24, 13.31, 13.97, 13.23, 13.16, 12.89, 13.29, 13.86, 14.35, 15.08, 14.75, 14.81, 14.69, 13.86, 12.96, 10.73, -10.73, -11.18, -8.8, -6.95, -4.4, -3.11, -0.0, -0.0, -0.0, 10.73, 10.28, 10.73, 0.0, 9.83, -7.27, -6.64, -7.9, -11.62, -12.52, -12.52, 12.07, 0.0, 0.0, 0.0, 0.0, 15.65, 19.22, 21.46, -0.0, -3.01, -0.0, 4.54, 2.4, 3.24, 4.35, 5.51, 7.77, 11.37, 13.07, 15.0, 15.8, 15.54, 10.18, 11.06, 13.81, 16.05, 17.43, 16.99, 16.99, 16.99, 16.31, 14.53, 5.64, 0.0, 5.65, 9.6, 8.2, 7.8, 7.4, 5.81, 2.71, 2.42, 3.96, 4.81, 4.1, 2.54, 0.0, 11.29, 11.29, 11.58, 11.58, 11.58, 12.22, 11.92, 11.62, 11.66, 11.36, 11.38, 11.06, 11.38, 11.38, 12.09, 12.75, 13.17, 13.24, 14.06, 14.13, 13.89, 13.93, 13.71, 14.13, 14.62, 14.99, 14.84, 14.5, 14.27, 13.86, 12.52, 10.28, 11.18, 10.28, -0.0, -0.0, -0.0, -0.0, 5.0, 9.83, 10.28, 7.59, 6.95, 0.0, 9.83, -4.4, -4.4, -4.6, -10.73, -11.18, -11.62, 0.0, 0.0, 0.0, 9.83, 10.73, 0.0, 12.39, 18.19, 9.67, -1.83, -0.0, 2.72, 2.81, 2.89, 5.64, 6.14, 6.31, 9.66, 10.35, 13.54, 17.85, 18.39, 12.27, 13.15, 16.54, 14.51, 15.33, 15.19, 16.33, 17.26, 16.99, 14.84, 8.38, 3.14, 4.0, 6.8, 6.54, 5.98, 6.14, 6.9, 4.24, 3.34, 4.28, 6.0, 5.8, 12.96, 12.96, 11.29, 11.29, 11.58, 11.58, 11.92, 12.22, 11.92, 12.3, 12.01, 11.7, 11.38, 11.38, 11.38, 12.07, 12.42, 12.42, 13.12, 13.53, 14.3, 14.64, 14.88, 15.03, 14.93, 14.79, 14.7, 15.09, 14.79, 15.03, 15.12, 14.73, 14.3, 12.96, 10.28, 10.73, 7.27, -0.0, -0.0, 2.49, 4.8, 10.28, 6.64, 8.4, 9.2, 9.83, -0.0, -4.2, -5.46, -4.6, -0.0, -0.0, 11.18, 11.62, 11.62, 10.73, 9.39, 9.83, 9.2, 11.03, 14.31, 9.39, 4.48, 2.82, 6.45, 3.82, 3.82, 4.1, 2.54, 3.69, 7.2, 11.8, 19.19, 18.63, 18.78, 17.81, 10.75, 10.17, 11.17, 14.13, 15.25, 15.54, 15.54, 16.85, 16.99, 12.27, 4.48, 1.84, 2.91, 1.43, 2.54, 4.74, 5.81, 3.14, 3.14, 4.81, 5.93, 7.41, 12.52, 12.52, 11.29, 11.29, 11.92, 11.92, 12.3, 12.61, 12.61, 12.64, 11.97, 12.01, 11.38, 11.72, 12.04, 12.07, 12.39, 12.78, 12.78, 13.46, 13.85, 14.51, 15.09, 15.19, 15.61, 15.46, 15.53, 15.73, 15.85, 15.96, 15.95, 16.02, 15.57, 14.66, 12.83, 12.07, 8.94, 6.64, 5.46, 7.59, 9.2, 9.83, 6.95, 4.0, 10.28, 8.94, -0.0, -0.0, -3.25, -0.0, -0.0, -0.0, -0.0, 7.59, 7.9, 7.59, 9.6, 10.28, 10.28, 10.41, 8.53, 7.78, 7.51, 7.9, 8.93, 4.8, -0.0, -0.0, -0.0, -0.0, 6.2, 16.91, 21.61, 16.39, 12.64, 11.65, 17.88, 3.68, 8.6, 12.46, 13.91, 13.28, 11.77, 14.19, 15.77, 15.2, 4.52, 0.0, 0.0, 0.0, 3.53, 5.73, 6.1, 3.53, 2.81, 4.81, 6.31, 7.73, 12.52, 12.52, 11.29, 11.62, 11.92, 12.3, 12.3, 12.61, 12.96, 12.64, 11.97, 12.01, 11.7, 11.72, 12.04, 12.4, 12.74, 12.77, 13.46, 13.46, 13.77, 13.76, 14.49, 15.34, 15.2, 15.27, 15.83, 15.96, 16.31, 15.87, 15.85, 15.73, 15.37, 14.87, 14.09, 11.51, 10.68, 10.28, 9.83, 10.28, 9.83, 9.33, 9.33, 8.8, 8.8, 9.2, 10.28, -0.0, -0.0, -0.0, -0.0, 3.25, 3.25, 7.27, 7.27, 7.27, 7.27, 8.55, 8.55, 8.58, 7.9, 7.9, 9.66, 9.3, 8.93, -0.0, -2.6, -1.93, -0.0, -0.0, 12.07, 13.42, 18.49, 17.59, 18.66, 21.46, 16.19, 9.42, 10.73, 15.18, 16.37, 15.38, 14.19, 15.99, 17.64, 9.48, 0.0, 0.0, 2.54, 0.0, 2.63, 4.11, 4.52, 3.73, 2.61, 4.24, 7.01, 9.17, 12.44, 12.44, 11.62, 11.62, 11.62, 11.99, 12.3, 12.64, 12.96, 12.64, 12.64, 12.33, 11.7, 12.04, 12.04, 12.74, 12.4, 14.42, 12.45, 13.14, 13.15, 13.93, 14.93, 15.59, 14.65, 15.61, 14.6, 15.53, 12.42, 14.42, 14.73, 13.21, 13.83, 13.96, 13.18, 11.96, 11.05, 10.56, 10.08, 10.18, 10.38, 10.18, 8.8, 9.75, 10.6, 11.18, 11.03, 7.59, 5.95, 5.7, 5.7, 5.7, 5.7, 5.7, 5.7, 5.7, 5.7, 6.17, 7.27, 7.9, 9.66, 9.3, 10.4, 9.67, 7.9, -0.0, -0.0, -0.0, -0.0, 5.7, 10.73, 14.11, 17.74, 20.08, 23.12, 24.31, 17.84, 16.31, 16.09, 16.54, 16.99, 17.36, 16.99, 17.3, 15.27, 10.01, 3.25, 2.63, 2.63, 5.8, 3.68, 2.2, 2.81, 4.71, 4.12, 4.58, 7.69, 12.79, 13.53, 13.53, 11.62, 11.62, 11.62, 11.99, 12.3, 12.64, 12.64, 12.64, 13.0, 12.67, 12.01, 12.04, 12.04, 12.7, 12.7, 12.77, 13.14, 12.14, 13.15, 13.76, 15.38, 14.44, 14.13, 14.67, 13.23, 13.78, 13.39, 12.5, 12.92, 12.44, 12.14, 12.27, 11.95, 11.95, 11.49, 10.58, 10.56, 10.56, 10.56, 10.12, 10.56, 10.68, 11.13, 11.18, 10.96, 10.79, 9.2, 8.55, 8.55, 6.95, 5.46, 5.7, 5.95, 6.2, 5.46, 4.4, 6.71, 7.59, 8.58, 10.4, 10.6, 7.59, -0.0, -0.0, -0.0, -0.0, 1.69, 5.75, 10.04, 12.72, 16.35, 19.2, 23.81, 26.3, 21.01, 16.78, 14.39, 12.46, 15.06, 16.12, 15.27, 16.15, 14.75, 13.41, 13.86, 13.01, 13.41, 12.58, 10.79, 11.2, 7.44, 7.44, 7.78, 8.44, 11.28, 15.2, 14.47, 14.47, 11.62, 11.62, 11.62, 11.99, 12.33, 12.33, 12.64, 13.0, 13.0, 13.0, 12.7, 12.36, 12.36, 12.7, 12.7, 13.05, 13.06, 12.08, 11.1, 13.46, 14.19, 12.91, 13.18, 13.49, 13.8, 14.1, 13.6, 13.0, 12.49, 11.71, 11.4, 11.51, 11.51, 11.49, 11.46, 11.02, 11.02, 10.58, 10.58, 11.14, 11.14, 11.18, 11.18, 12.07, 11.58, 11.91, 9.64, 9.2, 8.55, 8.55, 8.18, 8.55, 7.59, 6.2, 4.8, 4.6, 5.75, 7.9, 9.3, 10.0, 7.9, -0.0, -0.0, -2.71, -0.0, -0.0, 1.76, 4.75, 8.44, 10.43, 12.65, 16.17, 22.27, 25.03, 19.18, 15.9, 12.23, 11.17, 11.13, 12.0, 14.84, 15.57, 14.75, 13.09, 12.74, 12.45, 11.99, 12.45, 12.89, 12.07, 11.62, 10.47, 11.64, 11.16, 12.87, 14.75, 14.64, 14.64, 11.33, 11.62, 11.62, 12.33, 12.33, 12.33, 12.33, 13.0, 13.0, 12.67, 12.7, 12.36, 12.36, 12.7, 13.05, 13.05, 13.41, 12.7, 12.63, 13.23, 13.18, 12.85, 12.59, 13.15, 14.1, 15.2, 15.12, 14.61, 13.59, 12.81, 11.89, 11.53, 11.52, 11.51, 11.49, 11.02, 11.46, 11.46, 11.02, 11.14, 11.14, 11.14, 11.18, 12.07, 11.18, 10.68, 10.58, 9.64, 9.97, 9.75, 9.75, 8.93, 7.59, 6.2, 2.6, 5.0, 3.68, 6.21, 5.98, 4.8, -0.0, -2.6, -1.84, -0.0, -0.0, -0.0, -0.0, 1.71, 4.55, 4.05, 5.49, 11.16, 19.28, 23.9, 6.4, 7.51, 9.8, 10.03, 9.71, 9.16, 12.35, 15.69, 16.09, 14.75, 13.88, 12.72, 13.15, 14.3, 14.6, 12.07, 11.45, 11.64, 11.9, 13.28, 14.03, 14.3, 14.75, 14.75, 11.33, 11.33, 11.33, 11.97, 12.33, 12.33, 12.33, 12.67, 12.67, 12.67, 12.7, 12.36, 12.36, 12.71, 13.05, 13.05, 13.33, 12.98, 13.23, 13.82, 14.06, 14.1, 13.05, 12.66, 13.33, 14.38, 15.12, 15.34, 14.82, 13.92, 13.15, 12.81, 11.91, 11.42, 11.4, 11.51, 11.49, 11.49, 11.49, 11.49, 11.59, 11.59, 11.59, 11.62, 11.62, 11.18, 10.73, 9.39, 9.39, 9.75, 9.75, 8.93, 7.59, 6.2, 3.39, 2.6, 2.19, 3.56, 4.81, 3.49, -0.0, -2.02, -0.0, -0.0, -0.0, -0.0, 1.91, 1.84, 1.91, -0.0, -0.0, 5.65, 25.95, 11.53, -8.05, -1.54, 3.73, 6.43, 7.95, 8.39, 7.89, 11.77, 14.65, 15.53, 14.6, 13.67, 13.59, 13.28, 13.2, 14.61, 12.14, 13.15, 14.03, 14.3, 14.3, 14.3, 14.3, 14.3, 11.66, 11.66, 11.66, 11.66, 12.33, 12.33, 12.33, 12.67, 12.67, 12.67, 12.7, 12.36, 12.36, 12.71, 13.05, 13.33, 13.33, 13.23, 13.23, 14.13, 14.44, 14.36, 13.99, 13.59, 13.04, 13.45, 14.2, 14.91, 15.09, 14.61, 13.92, 13.59, 12.69, 12.22, 11.45, 10.98, 10.96, 11.06, 11.51, 11.51, 11.59, 11.59, 11.59, 11.62, 11.62, 11.18, 12.52, 11.18, 10.73, 10.6, 11.03, 10.6, 8.93, 7.59, 3.25, 3.25, -0.0, -0.0, -0.0, 5.2, 3.32, -0.0, -0.0, -0.0, -0.0, -0.0, 1.98, 3.04, -0.0, -0.0, -0.0, 19.77, 25.93, 26.72, 14.46, 11.5, 13.41, 4.81, 5.99, 6.8, 7.13, 9.16, 10.97, 11.72, 12.51, 12.27, 12.27, 10.43, 13.03, 12.87, 13.67, 11.99, 13.32, 13.86, 14.3, 14.11, 13.86, 13.86, 11.66, 11.66, 11.66, 11.66, 11.66, 12.01, 12.67, 12.67, 12.67, 12.67, 12.7, 12.65, 12.65, 12.36, 12.98, 13.33, 12.98, 13.23, 13.55, 13.55, 14.44, 14.75, 14.65, 14.26, 13.72, 13.45, 13.79, 13.99, 14.42, 14.18, 14.35, 13.88, 13.01, 12.69, 12.22, 11.31, 11.01, 10.98, 10.98, 11.52, 11.52, 11.6, 11.15, 11.18, 11.18, 10.73, 11.62, 10.73, 9.79, 9.77, 10.41, 12.27, 10.41, 10.18, 7.27, 3.25, -0.0, -3.11, -0.0, 5.6, 6.2, 2.97, -0.0, -0.0, -0.0, -0.0, -0.0, 2.37, 2.37, 8.22, 13.15, 14.99, 21.9, 26.55, 25.47, 18.57, 16.16, 15.34, 10.12, 5.16, 6.79, 8.2, 9.1, 9.89, 11.64, 11.33, 13.19, 12.65, 14.42, 4.3, 9.0, 11.03, 13.02, 14.66, 13.23, 12.39, 13.86, 13.86, 11.36, 11.36, 11.36, 12.01, 12.01, 12.35, 12.35, 12.35, 12.67, 12.67, 12.7, 12.99, 12.65, 12.65, 12.98, 12.98, 13.23, 13.23, 13.55, 13.87, 14.44, 14.75, 14.75, 14.65, 14.13, 13.72, 13.56, 13.37, 13.57, 13.75, 13.7, 13.44, 13.01, 12.97, 12.25, 11.78, 11.31, 11.01, 11.01, 10.98, 11.09, 11.53, 11.08, 11.15, 10.7, 10.73, 11.62, 10.28, 9.83, 9.83, 11.13, 11.11, 12.52, 12.07, 10.6, 7.59, -0.0, -4.4, -4.6, -0.0, 6.7, 3.82, -0.0, -0.0, -0.0, -0.0, -0.0, 3.04, 6.67, 10.01, 12.07, 14.3, 16.94, 23.26, 24.87, 22.62, 18.86, 16.78, 12.86, 3.68, 5.28, 7.03, 9.58, 9.4, 11.17, 13.58, 14.75, 14.75, 11.8, 7.82, 12.01, 12.92, 13.97, 15.25, 13.86, 14.3, 12.39, 12.39, 11.7, 11.7, 11.7, 12.01, 12.35, 12.35, 12.35, 12.35, 12.35, 12.35, 12.7, 12.7, 12.65, 12.65, 12.65, 13.23, 13.23, 13.23, 13.55, 13.87, 13.87, 14.36, 14.36, 14.65, 14.26, 14.13, 13.97, 13.79, 13.37, 13.15, 12.85, 12.85, 12.42, 12.58, 12.1, 12.25, 12.22, 11.78, 11.75, 11.31, 11.01, 11.42, 11.42, 10.65, 10.26, 11.15, 11.18, 10.28, 9.83, 9.83, 10.73, 11.18, 10.28, 10.28, 11.18, 10.18, 4.8, -4.6, -6.64, -4.6, -0.0, 1.84, 2.19, -0.0, -0.0, -0.0, -0.0, 5.8, 9.17, 11.6, 12.96, 13.41, 14.75, 16.82, 18.68, 24.1, 22.91, 19.2, 12.96, 3.11, 1.91, 5.2, 8.1, 8.37, 9.8, 11.64, 14.3, 15.43, 14.11, 11.8, 14.11, 16.41, 16.99, 16.12, 14.95, 13.57, 12.27, 12.27, 11.7, 11.7, 11.7, 12.35, 12.35, 12.35, 12.35, 12.35, 12.35, 12.35, 12.7, 12.7, 12.99, 12.99, 13.33, 13.23, 13.23, 13.23, 13.55, 13.55, 13.87, 14.18, 14.36, 14.26, 14.26, 14.13, 13.72, 13.97, 13.56, 13.37, 13.15, 13.15, 12.85, 12.42, 12.1, 12.1, 12.22, 12.22, 11.78, 11.75, 11.31, 11.45, 10.98, 10.2, 9.75, 10.7, 10.26, 10.26, 9.81, 10.28, 11.18, 10.73, 10.73, 10.28, 10.73, 11.62, 10.0, -0.0, -7.27, -5.7, -0.0, -0.0, -0.0, -0.0, -0.0, -0.0, 4.24, 12.52, 8.53, 12.96, 14.3, 14.3, 13.34, 13.8, 15.2, 19.63, 23.53, 19.18, 13.86, 5.7, 0.0, 3.28, 6.51, 7.28, 8.42, 9.8, 11.8, 15.34, 15.65, 14.47, 14.75, 15.65, 16.48, 16.66, 15.58, 13.99, 13.34, 13.34, 11.7, 11.7, 12.02, 12.02, 12.35, 12.35, 12.35, 12.7, 12.7, 12.7, 12.7, 12.7, 12.7, 12.99, 13.33, 13.23, 13.23, 13.23, 13.55, 13.55, 13.87, 13.49, 13.97, 13.97, 13.86, 14.13, 13.72, 13.97, 13.56, 13.79, 13.37, 13.15, 13.08, 12.85, 12.42, 12.1, 12.1, 12.06, 11.78, 11.78, 11.31, 11.31, 10.98, 11.84, 12.0, 10.28, 9.37, 9.75, 10.18, 10.26, 11.14, 10.7, 10.25, 10.25, 10.68, 10.62, 12.07, -0.0, -0.0, -3.53, -2.71, -0.0, -0.0, -0.0, -0.0, -0.0, 1.96, -0.0, 0.0, 0.0, 13.44, 13.99, 13.8, 13.19, 12.36, 15.25, 19.09, 18.1, 18.71, 16.99, 3.04, 0.79, 4.65, 6.53, 8.61, 10.18, 11.99, 14.75, 15.2, 15.2, 14.31, 13.59, 14.38, 15.47, 15.61, 15.19, 14.36, 14.36, 11.7, 11.7, 12.02, 12.02, 12.35, 12.35, 12.7, 12.7, 12.7, 12.7, 12.7, 12.7, 12.7, 12.99, 13.33, 13.23, 13.23, 13.55, 13.55, 13.18, 13.49, 13.49, 13.12, 13.42, 13.86, 13.46, 13.72, 13.97, 13.56, 13.79, 13.37, 13.37, 13.15, 12.66, 12.42, 11.94, 11.94, 12.1, 11.63, 11.63, 11.78, 11.31, 11.31, 10.54, 11.06, 11.57, 11.12, 10.05, 10.02, 10.89, 11.05, 10.16, 10.25, 10.25, 10.58, 10.52, 9.74, 11.18, 5.2, -0.0, -3.39, -0.0, -0.0, -0.0, -0.0, -1.55, -0.0, 2.81, -0.0, 9.83, 7.59, 10.73, 14.39, 16.73, 16.05, 16.3, 16.21, 15.59, 17.97, 20.12, 20.92, 7.32, 4.1, 6.63, 9.67, 14.3, 13.59, 14.3, 14.75, 14.75, 13.19, 12.52, 13.99, 14.53, 14.61, 15.8, 15.8, 15.8, 11.7, 11.7, 12.02, 12.02, 12.02, 12.7, 12.7, 12.7, 12.36, 12.36, 12.7, 12.7, 12.7, 13.33, 13.33, 12.98, 12.87, 13.55, 13.55, 13.55, 13.49, 13.12, 13.12, 13.42, 13.32, 13.32, 13.32, 13.56, 13.37, 13.79, 13.79, 13.37, 13.37, 13.08, 12.66, 12.36, 11.94, 11.94, 12.06, 11.63, 11.63, 11.78, 11.31, 10.84, 10.37, 11.56, 11.84, 10.49, 10.02, 10.84, 10.41, 10.14, 10.14, 10.6, 10.58, 10.58, 10.08, 11.62, 10.52, 5.0, -0.0, -0.0, -0.0, -0.0, -1.71, -3.68, -1.44, 2.13, 6.7, 7.27, 5.21, 7.15, 13.02, 20.6, 20.53, 17.66, 13.91, 12.13, 14.79, 19.2, 21.82, 19.1, 15.09, 13.75, 13.86, 14.25, 14.16, 14.07, 14.03, 14.4, 13.81, 13.56, 14.23, 14.7, 14.6, 14.94, 15.77, 15.77, 11.38, 11.38, 12.02, 12.02, 12.02, 12.36, 12.36, 12.36, 12.36, 12.65, 12.65, 12.99, 12.99, 13.33, 13.33, 12.98, 12.87, 13.18, 13.55, 13.18, 13.12, 13.12, 13.12, 13.03, 13.03, 13.32, 13.19, 12.79, 14.53, 12.87, 13.37, 13.37, 13.37, 13.08, 13.08, 12.66, 12.36, 12.36, 11.94, 12.06, 11.63, 11.63, 11.31, 11.31, 10.84, 10.72, 10.88, 10.54, 10.52, 10.89, 10.45, 10.14, 10.58, 10.58, 10.14, 10.14, 11.0, 10.96, 10.73, 9.97, 8.53, -0.0, -0.0, -0.0, -0.0, -2.71, -3.25, -0.0, 7.51, 9.42, 7.27, 7.59, 11.53, 17.33, 27.98, 19.97, 13.99, 7.56, 10.43, 16.38, 18.0, 17.88, 16.97, 15.63, 15.62, 16.07, 15.63, 14.73, 14.16, 13.55, 13.5, 13.8, 14.13, 14.75, 14.31, 14.84, 15.36, 15.36, 11.38, 11.38, 11.7, 12.02, 12.02, 12.36, 12.36, 12.36, 12.65, 12.65, 12.98, 12.98, 13.33, 13.33, 13.33, 12.98, 13.23, 13.18, 13.18, 13.18, 13.12, 13.12, 12.74, 13.03, 13.03, 12.93, 12.93, 12.79, 12.39, 13.97, 12.36, 12.87, 13.08, 13.08, 13.08, 13.08, 12.58, 12.79, 12.36, 11.94, 12.06, 12.06, 11.63, 11.15, 10.88, 10.88, 10.88, 10.57, 10.54, 10.52, 10.05, 10.05, 11.05, 10.6, 10.16, 10.6, 10.6, 10.35, 10.04, 10.73, 10.41, -0.0, -0.0, -0.0, -0.0, -0.0, -0.0, -0.0, 8.22, 10.37, 8.53, 9.3, 11.28, 16.05, 28.06, 23.47, 18.14, 14.75, 11.88, 13.86, 15.82, 16.99, 17.86, 17.81, 16.97, 16.54, 16.09, 15.2, 14.3, 13.38, 12.81, 13.25, 13.7, 14.14, 14.16, 14.61, 14.75, 14.75, 11.38, 11.38, 11.7, 11.7, 12.02, 12.36, 12.36, 12.65, 12.65, 12.98, 12.98, 12.98, 12.98, 13.33, 12.98, 12.98, 13.18, 13.18, 13.18, 12.82, 13.12, 12.74, 12.74, 13.03, 12.65, 12.93, 12.53, 12.67, 13.07, 13.04, 12.45, 12.36, 12.66, 13.08, 13.08, 13.08, 13.0, 13.21, 12.79, 12.36, 12.3, 12.06, 12.06, 11.63, 11.15, 10.88, 10.88, 10.44, 10.57, 10.54, 10.54, 10.96, 10.49, 10.18, 10.18, 10.16, 10.16, 9.72, 9.92, 10.66, 8.85, -0.0, -0.0, -0.0, -0.0, 1.76, 1.76, 2.1, 3.68, 5.6, 7.28, 9.77, 12.39, 15.2, 23.69, 25.76, 21.15, 18.32, 17.06, 17.43, 16.73, 16.76, 16.9, 16.97, 16.99, 16.09, 16.09, 15.2, 14.3, 13.41, 12.52, 12.47, 12.52, 13.41, 13.41, 14.64, 15.09, 15.09, 11.7, 11.7, 11.7, 11.7, 11.7, 12.36, 12.36, 12.65, 12.65, 12.98, 12.98, 12.98, 12.98, 13.33, 12.98, 13.55, 13.18, 13.18, 13.18, 13.49, 13.12, 12.74, 12.74, 13.03, 12.65, 12.65, 12.53, 12.53, 12.67, 12.92, 13.04, 12.87, 12.45, 12.45, 12.66, 13.08, 13.0, 13.21, 12.79, 12.79, 12.72, 12.3, 12.06, 11.63, 11.63, 11.2, 10.88, 10.88, 10.88, 10.41, 10.54, 10.98, 10.54, 10.08, 10.52, 10.18, 9.74, 9.74, 9.72, 10.28, 9.7, 5.2, -0.0, -0.0, 2.19, 2.71, 3.98, 2.19, -0.0, 3.32, 6.63, 9.8, 13.39, 15.53, 19.67, 21.36, 19.6, 18.04, 19.25, 18.82, 17.43, 16.78, 15.27, 14.84, 15.55, 14.74, 14.75, 14.75, 13.41, 12.52, 12.52, 12.52, 12.52, 12.44, 12.9, 12.91, 14.75, 14.75, 11.37, 11.37, 11.7, 11.7, 11.7, 12.03, 12.36, 12.65, 12.65, 12.98, 12.98, 12.98, 12.98, 13.32, 13.32, 13.55, 13.18, 13.18, 13.18, 13.49, 13.12, 12.74, 12.74, 12.65, 12.65, 12.65, 12.27, 12.53, 12.53, 12.79, 12.79, 13.04, 12.64, 12.45, 12.45, 12.66, 12.58, 12.58, 12.79, 12.79, 12.72, 12.3, 12.49, 12.06, 11.63, 11.63, 11.2, 11.31, 10.88, 10.88, 10.41, 10.41, 10.54, 10.54, 10.11, 9.64, 9.75, 9.75, 9.81, 10.28, 10.28, 8.22, 5.95, 2.02, 3.25, 5.0, 6.17, 2.1, -0.0, 1.58, 6.67, 8.44, 13.27, 15.77, 18.96, 17.4, 17.17, 18.84, 20.82, 20.7, 20.06, 16.54, 14.3, 12.93, 13.36, 12.96, 12.96, 12.52, 12.52, 12.96, 12.96, 12.96, 12.96, 12.96, 12.42, 12.88, 13.81, 13.81, 11.37, 11.37, 11.7, 11.7, 11.7, 12.03, 12.65, 12.65, 12.65, 12.98, 12.98, 12.98, 12.98, 13.32, 13.55, 13.55, 13.18, 13.18, 13.49, 13.49, 13.12, 12.74, 13.03, 12.65, 12.65, 12.65, 12.27, 12.53, 12.53, 12.79, 12.79, 13.04, 13.04, 12.64, 12.87, 12.45, 12.58, 12.58, 12.58, 12.58, 12.72, 12.3, 11.8, 12.58, 10.84, 11.58, 11.63, 11.2, 11.15, 10.72, 10.84, 10.41, 10.41, 10.54, 9.67, 9.67, 9.64, 9.31, 9.81, 9.83, 9.83, 9.11, 8.23, 5.06, 5.52, 7.9, 6.95, 3.82, -0.0, -0.0, 3.19, 5.8, 11.06, 15.84, 19.71, 17.76, 13.86, 16.99, 22.33, 22.35, 19.65, 17.29, 15.01, 12.86, 12.03, 12.92, 13.36, 12.96, 12.96, 12.96, 12.96, 13.41, 13.41, 13.41, 12.96, 12.96, 13.41, 13.36, 11.37, 11.37, 11.37, 11.7, 11.7, 12.03, 12.31, 12.31, 12.65, 12.98, 12.98, 12.63, 12.63, 13.18, 13.55, 13.18, 13.18, 13.49, 13.49, 13.49, 13.12, 13.12, 13.03, 12.65, 12.65, 12.27, 12.27, 12.53, 12.53, 12.53, 12.79, 12.79, 13.04, 13.04, 12.64, 12.87, 12.36, 12.36, 12.58, 12.58, 12.5, 12.3, 11.8, 12.58, 10.84, 11.75, 11.58, 11.38, 11.15, 10.72, 10.67, 10.41, 10.41, 9.97, 9.67, 9.67, 9.23, 9.32, 9.37, 9.83, 9.81, 9.11, 10.18, 6.64, 6.95, 7.59, 7.59, 3.25, -0.0, -0.0, -0.0, 2.13, 9.44, 14.95, 21.38, 20.79, 14.62, 14.9, 18.84, 19.62, 16.91, 15.2, 15.12, 14.53, 13.59, 13.15, 13.59, 13.7, 13.23, 13.36, 13.41, 13.41, 13.41, 13.41, 13.36, 12.93, 13.37, 13.41, 11.37, 11.37, 11.37, 11.37, 11.7, 12.03, 12.31, 12.31, 12.31, 12.63, 12.63, 12.63, 12.98, 13.55, 13.55, 13.55, 13.55, 13.18, 13.49, 13.12, 13.12, 12.74, 13.03, 12.65, 12.65, 12.27, 12.27, 12.53, 12.53, 12.53, 12.79, 12.79, 12.79, 13.04, 13.04, 13.04, 12.77, 12.36, 12.36, 12.58, 12.58, 12.08, 12.08, 11.3, 12.3, 11.15, 11.38, 11.38, 10.88, 10.46, 10.67, 10.24, 10.41, 9.97, 9.54, 9.67, 9.23, 8.86, 9.37, 9.39, 9.81, 9.26, 7.28, 9.13, 9.2, 8.55, 6.95, 3.25, -0.0, -0.0, -0.0, 3.19, 8.66, 12.73, 15.74, 21.46, 20.96, 15.71, 14.27, 12.87, 12.33, 13.01, 13.41, 13.38, 13.72, 14.19, 14.21, 14.65, 14.28, 13.83, 13.86, 13.86, 13.8, 13.82, 13.25, 13.25, 12.83, 13.37, 11.37, 11.37, 11.37, 11.37, 11.37, 11.97, 12.31, 12.31, 12.31, 12.63, 12.63, 12.98, 12.98, 13.55, 13.55, 13.55, 13.55, 13.49, 13.49, 13.12, 12.74, 13.03, 12.65, 12.65, 12.65, 12.27, 12.27, 12.53, 12.53, 12.53, 12.79, 12.39, 12.79, 12.79, 12.93, 12.93, 12.52, 12.77, 12.77, 12.77, 12.36, 12.08, 12.08, 11.57, 11.57, 12.72, 10.88, 10.46, 9.96, 10.18, 10.18, 9.75, 9.81, 9.97, 9.54, 9.23, 9.23, 8.86, 8.92, 9.39, 9.39, 9.26, 10.58, 9.64, 8.8, 9.2, 5.9, 2.6, -0.0, -0.0, -0.0, 3.19, 7.78, 10.82, 11.88, 15.92, 25.12, 23.98, 16.31, 12.79, 14.55, 14.6, 14.99, 15.97, 15.98, 15.18, 14.75, 14.75, 14.75, 14.3, 14.3, 14.26, 13.67, 13.7, 13.11, 12.63, 12.63, 12.63, 11.37, 11.37, 11.37, 11.37, 11.66, 11.97, 12.31, 12.31, 12.31, 12.63, 12.98, 12.98, 12.98, 13.23, 13.55, 13.55, 13.55, 13.18, 13.49, 13.12, 12.74, 13.03, 12.65, 12.65, 12.65, 12.65, 12.53, 12.53, 12.53, 12.53, 12.53, 12.79, 12.79, 12.66, 12.52, 12.93, 12.93, 12.93, 13.18, 12.77, 12.77, 12.36, 11.85, 11.85, 11.85, 12.08, 11.38, 10.24, 9.75, 9.75, 9.75, 9.33, 9.33, 9.33, 9.07, 9.11, 8.79, 8.86, 8.92, 8.94, 9.39, 8.91, 8.46, 9.64, 9.54, 9.54, 8.55, 2.49, -0.0, -0.0, 1.64, 3.53, 7.78, 8.01, 11.52, 14.39, 19.59, 28.39, 24.57, 18.33, 15.62, 15.2, 16.39, 17.31, 16.82, 16.31, 14.72, 14.3, 14.71, 14.11, 14.11, 14.11, 13.37, 12.94, 12.58, 12.3, 12.3, 12.3, 11.05, 11.05, 11.37, 11.37, 11.97, 11.97, 12.31, 12.31, 12.31, 12.63, 12.98, 12.98, 12.98, 13.23, 13.55, 13.55, 13.18, 13.18, 13.49, 12.74, 13.03, 12.65, 12.65, 12.65, 12.65, 12.65, 12.53, 12.53, 12.53, 12.53, 12.53, 12.79, 12.79, 12.66, 12.26, 12.93, 12.93, 12.93, 12.93, 13.18, 12.77, 12.36, 12.25, 11.85, 11.85, 12.08, 11.87, 11.15, 10.24, 9.81, 9.33, 9.33, 8.91, 9.07, 9.07, 8.64, 8.77, 8.42, 8.47, 8.94, 8.94, 8.94, 8.94, 10.73, 9.83, 9.54, 8.55, 2.6, -0.0, -0.0, 1.84, 3.39, 5.98, 9.17, 11.64, 14.11, 16.96, 21.61, 27.59, 22.38, 18.68, 19.22, 20.43, 19.59, 18.16, 16.19, 15.27, 14.72, 14.25, 13.57, 12.98, 13.15, 13.15, 12.6, 12.18, 12.04, 12.04, 12.04, 11.05, 11.05, 11.05, 11.97, 11.97, 11.97, 11.97, 11.97, 12.63, 12.63, 12.63, 12.63, 13.23, 12.87, 13.18, 13.18, 13.18, 12.82, 12.82, 12.74, 12.37, 12.65, 12.81, 12.81, 12.81, 12.27, 12.53, 12.53, 12.53, 12.53, 12.53, 12.53, 12.79, 12.66, 12.66, 12.66, 12.93, 12.93, 12.93, 12.93, 12.77, 12.77, 12.36, 11.85, 11.85, 11.67, 11.67, 11.45, 11.15, 10.67, 9.81, 9.33, 9.5, 9.07, 9.07, 8.33, 8.33, 7.97, 7.97, 8.47, 8.49, 8.94, 8.94, 8.49, 10.73, 9.54, 8.18, 4.83, -0.0, -0.0, -0.0, 3.25, 5.75, 8.85, 11.64, 13.07, 14.86, 16.95, 20.17, 21.23, 21.8, 22.34, 22.16, 21.49, 18.41, 16.65, 16.19, 15.78, 15.17, 13.79, 13.57, 11.2, 11.6, 12.04, 12.04, 11.44, 11.44, 11.44, 11.05, 11.05, 11.05, 11.63, 11.97, 11.63, 11.97, 11.97, 12.28, 12.63, 12.63, 12.63, 12.87, 12.87, 13.18, 12.82, 12.82, 12.82, 12.45, 12.74, 12.74, 12.81, 12.81, 12.81, 12.42, 12.27, 12.53, 12.53, 12.53, 12.53, 12.53, 12.53, 12.79, 12.66, 12.66, 12.66, 12.66, 12.93, 12.93, 12.93, 12.52, 11.99, 12.25, 11.85, 11.85, 11.67, 11.25, 11.38, 10.96, 10.96, 10.67, 10.24, 9.81, 9.5, 9.5, 8.77, 8.74, 8.41, 7.95, 8.02, 8.46, 8.49, 8.94, 9.39, 8.94, 10.28, 9.33, 5.36, 1.62, -0.0, -0.0, 3.39, 5.98, 8.85, 10.91, 11.75, 13.59, 14.79, 15.33, 15.01, 18.55, 24.8, 25.19, 20.68, 18.94, 18.0, 17.59, 17.2, 15.56, 14.75, 11.5, 9.42, 9.62, 10.61, 10.61, 9.82, 9.82, 9.82, 11.05, 11.05, 11.36, 11.36, 11.63, 11.63, 11.63, 11.97, 12.28, 12.28, 12.28, 12.52, 12.52, 12.52, 12.82, 12.82, 12.82, 12.45, 12.45, 12.74, 12.74, 12.54, 12.42, 12.42, 12.42, 12.42, 12.53, 12.53, 12.53, 12.53, 12.53, 12.53, 12.79, 12.66, 12.66, 12.66, 12.66, 12.93, 12.93, 12.52, 12.39, 11.99, 12.25, 11.85, 11.85, 11.44, 11.25, 11.16, 10.96, 10.96, 10.54, 10.24, 10.24, 9.81, 9.5, 9.5, 8.74, 8.3, 7.95, 7.95, 8.02, 8.46, 8.49, 8.94, 8.94, 9.83, 8.91, 5.21, 2.39, 1.62, -0.0, 1.84, 5.98, 8.85, 9.96, 10.91, 11.9, 13.13, 13.23, 12.19, 14.26, 21.57, 25.35, 22.54, 20.32, 18.78, 17.51, 15.58, 14.72, 12.71, 10.01, 8.85, 7.54, 8.53, 8.53, 8.53, 8.53, 8.53, 11.36, 11.36, 11.36, 11.03, 11.63, 11.63, 11.63, 11.93, 11.93, 12.28, 12.28, 12.52, 12.52, 12.52, 12.82, 12.45, 12.45, 12.45, 12.45, 12.74, 12.37, 12.54, 12.16, 12.42, 12.42, 12.42, 12.67, 12.67, 12.67, 12.53, 12.53, 12.53, 12.53, 12.66, 12.66, 12.66, 12.66, 12.66, 12.52, 12.52, 11.99, 11.99, 11.6, 11.85, 11.85, 11.44, 10.92, 11.16, 10.75, 10.96, 10.54, 10.67, 10.24, 10.24, 9.93, 9.5, 9.21, 8.74, 8.41, 7.95, 7.58, 8.02, 8.49, 8.94, 8.94, 10.28, 9.97, 5.46, 2.39, 1.62, 2.02, 2.1, 5.98, 8.53, 8.01, 9.48, 10.43, 11.17, 10.92, 11.06, 12.71, 16.43, 20.98, 22.32, 22.93, 19.87, 16.6, 12.88, 12.96, 12.52, 8.85, 4.48, 5.2, 5.75, 6.98, 6.7, 6.7, 6.7, 11.03, 11.03, 11.03, 11.03, 11.03, 11.28, 11.28, 11.93, 11.93, 11.93, 11.93, 12.16, 12.16, 12.16, 12.45, 12.45, 12.45, 12.45, 12.45, 12.37, 12.37, 11.99, 12.16, 12.42, 12.42, 12.42, 12.67, 12.67, 12.67, 12.53, 12.53, 12.93, 12.93, 13.19, 12.66, 12.66, 12.66, 12.26, 12.26, 11.99, 11.99, 11.6, 11.6, 11.85, 11.33, 11.33, 10.92, 11.16, 10.75, 10.75, 10.54, 10.46, 10.67, 10.24, 9.75, 9.93, 9.5, 9.18, 8.3, 7.97, 7.95, 7.58, 8.05, 8.49, 8.49, 8.94, 9.33, 6.95, 3.65, 1.62, 1.93, -0.0, 5.0, 7.54, 6.94, 7.54, 8.73, 8.83, 8.94, 9.92, 11.58, 12.19, 14.22, 19.46, 24.43, 21.05, 13.32, 10.28, 11.62, 12.35, 12.07, 2.82, 2.1, 3.98, 3.82, 3.65, 3.65, 3.65, 11.03, 11.03, 11.03, 11.03, 11.03, 11.28, 11.28, 11.58, 11.58, 11.93, 11.93, 12.16, 12.16, 12.16, 12.45, 12.82, 12.45, 12.45, 12.09, 12.37, 11.99, 11.99, 11.99, 12.16, 12.42, 12.42, 12.42, 12.67, 12.67, 12.67, 12.93, 12.93, 12.93, 13.19, 12.66, 12.66, 12.66, 12.26, 12.26, 11.99, 11.99, 11.6, 11.6, 11.2, 11.33, 11.33, 10.92, 10.92, 10.75, 10.75, 10.75, 10.46, 10.46, 10.24, 10.18, 9.75, 9.5, 9.07, 8.74, 8.3, 7.95, 7.51, 7.58, 8.05, 8.05, 8.94, 8.91, 7.27, 3.25, 1.69, 3.82, 5.46, 4.4, 5.0, 6.21, 6.94, 7.54, 6.87, 8.51, 10.43, 10.43, 10.43, 11.06, 15.34, 25.45, 19.44, 15.12, 10.73, 10.73, 11.02, 11.18, 11.62, 0.0, 0.0, 0.0, 0.0, 0.0, 0.0, 11.03, 10.69, 10.69, 10.69, 10.69, 10.69, 11.23, 11.58, 11.58, 11.58, 11.58, 11.8, 12.16, 12.52, 12.82, 12.45, 12.45, 12.09, 12.09, 11.99, 11.99, 11.99, 11.99, 11.99, 12.27, 12.42, 12.42, 12.67, 13.07, 13.07, 12.93, 12.93, 12.93, 13.19, 12.66, 12.66, 12.66, 12.26, 12.26, 11.99, 11.99, 11.6, 11.6, 11.06, 11.33, 10.92, 10.92, 10.92, 10.75, 10.75, 10.75, 10.75, 10.46, 10.05, 10.18, 9.75, 9.33, 9.03, 8.6, 8.74, 8.3, 7.95, 7.58, 7.58, 7.6, 7.15, 9.26, 6.64, 1.62, 1.69, 3.98, 5.52, 5.7, 3.11, 2.19, 5.2, 6.21, 6.43, 8.73, 9.13, 10.12, 10.12, 10.63, 15.56, 27.06, 21.79, 17.37, 12.07, 11.02, 10.96, 11.12, 11.14, 10.79, 0.0, -4.8, -6.95, -6.95, -6.95, 10.69, 10.69, 10.69, 10.69, 10.69, 10.69, 11.23, 11.23, 11.23, 11.58, 11.93, 12.16, 12.52, 12.16, 12.45, 12.45, 12.09, 12.09, 11.72, 11.99, 11.99, 11.99, 11.99, 11.99, 11.99, 12.27, 12.42, 12.81, 13.07, 13.07, 12.93, 12.93, 12.93, 12.93, 12.66, 12.66, 12.26, 12.26, 11.72, 11.72, 11.6, 11.6, 11.2, 11.06, 11.06, 10.92, 10.92, 10.92, 10.92, 10.75, 10.75, 10.75, 10.65, 10.46, 9.96, 9.75, 9.33, 8.84, 8.6, 8.6, 8.28, 7.84, 7.95, 7.58, 7.6, 7.6, 9.39, 6.64, -0.0, -0.0, 3.65, 4.6, 5.95, 4.6, 2.02, 3.53, 4.75, 6.21, 8.3, 9.17, 8.83, 9.21, 11.93, 26.95, 27.6, 23.13, 18.27, 14.75, 12.02, 10.35, 10.68, 12.85, 11.4, 8.22, -9.6, -10.28, -10.28, -10.28, 10.36, 10.36, 10.36, 10.36, 10.69, 10.99, 11.23, 11.23, 11.58, 11.93, 11.93, 11.93, 12.16, 12.16, 12.45, 12.09, 12.09, 11.88, 11.72, 11.99, 11.99, 11.99, 11.99, 11.99, 11.99, 12.65, 12.65, 12.81, 13.07, 13.07, 12.93, 12.93, 12.93, 12.53, 12.66, 12.66, 12.26, 12.26, 11.72, 11.72, 11.6, 11.6, 11.06, 11.06, 11.06, 10.92, 10.92, 10.92, 10.8, 10.92, 11.16, 11.16, 10.65, 10.46, 9.96, 9.75, 9.33, 8.84, 8.6, 8.6, 8.12, 7.84, 7.51, 7.51, 7.57, 7.57, 7.6, 6.32, -0.0, -0.0, 2.49, 4.6, 7.27, 6.42, 5.29, 3.39, 3.68, 6.7, 8.01, 8.01, 7.54, 9.13, 16.58, 25.4, 26.16, 21.59, 17.37, 13.41, 11.84, 8.22, 7.9, 10.15, 10.84, 11.18, -0.0, -0.0, -0.0, -0.0, 10.36, 10.36, 10.36, 10.36, 10.36, 10.99, 10.99, 11.58, 11.58, 11.58, 11.58, 11.93, 11.58, 11.8, 12.09, 11.88, 11.88, 11.88, 12.09, 11.99, 12.37, 12.37, 12.37, 12.37, 12.37, 12.65, 13.03, 13.03, 12.65, 13.07, 12.93, 12.93, 12.53, 12.53, 12.66, 12.26, 12.26, 12.26, 11.72, 11.72, 11.6, 11.6, 11.06, 11.06, 11.06, 10.92, 10.92, 10.8, 10.8, 10.8, 11.06, 11.06, 10.65, 10.46, 10.05, 9.55, 9.33, 8.84, 8.42, 8.6, 8.12, 7.84, 7.4, 7.5, 8.02, 8.01, 8.0, 8.05, 4.6, 4.8, 3.39, 5.95, 7.59, 6.17, 5.9, 4.4, 3.98, 5.98, 6.94, 6.94, 6.94, 8.59, 15.99, 22.34, 26.06, 19.9, 16.31, 12.07, 9.6, 1.84, 5.54, 9.08, 11.62, -0.0, -0.0, 4.4, 4.4, 4.4, 10.09, 10.09, 10.36, 10.36, 10.99, 10.99, 10.99, 11.23, 11.58, 11.58, 11.58, 11.58, 11.58, 11.88, 11.88, 11.88, 11.88, 11.88, 11.88, 12.37, 12.37, 12.37, 12.37, 12.74, 12.74, 13.03, 13.03, 12.65, 12.65, 12.93, 12.93, 12.53, 12.53, 12.53, 12.66, 12.26, 12.26, 11.87, 11.72, 11.33, 11.6, 11.6, 11.06, 11.06, 11.06, 10.92, 10.8, 10.8, 10.8, 10.8, 10.8, 11.06, 10.65, 10.24, 10.05, 9.55, 9.13, 8.84, 8.84, 8.6, 8.12, 7.69, 7.84, 7.81, 7.94, 7.94, 8.45, 8.49, 8.24, 4.8, 4.8, 8.93, 8.93, 7.27, 6.17, 7.27, 7.27, 5.0, 6.97, 6.21, 7.51, 11.9, 16.6, 20.24, 27.76, 24.07, 17.59, 14.16, 10.0, -5.75, -5.2, -11.62, -0.0, 6.45, 5.0, 3.82, 3.82, 3.82, 10.09, 10.09, 10.09, 10.36, 10.65, 10.65, 10.65, 11.23, 11.23, 11.23, 11.23, 11.23, 11.58, 11.88, 11.88, 11.88, 11.88, 12.24, 12.24, 12.74, 12.74, 12.74, 12.74, 12.74, 13.03, 13.03, 13.03, 12.65, 12.65, 12.93, 12.53, 12.53, 12.53, 12.53, 12.26, 12.26, 12.26, 11.87, 11.72, 11.33, 11.6, 11.6, 11.06, 11.06, 11.06, 11.06, 10.8, 10.8, 10.8, 10.8, 10.8, 10.65, 10.24, 10.24, 10.05, 9.55, 9.13, 9.26, 8.84, 8.42, 8.55, 8.12, 7.84, 7.81, 7.94, 8.38, 8.36, 8.43, 8.49, 9.2, 9.2, 8.93, 7.27, 6.95, 6.95, 6.95, 6.95, 5.7, 7.59, 8.22, 11.6, 13.67, 15.65, 19.22, 25.9, 27.7, 19.16, 16.9, 12.96, -6.2, -11.62, -3.68, 5.4, 8.22, 6.98, 7.15, 7.15, 7.15, 10.09, 10.09, 10.09, 10.39, 10.65, 10.65, 10.65, 10.65, 10.88, 11.23, 11.23, 11.58, 11.88, 11.88, 12.24, 12.24, 12.24, 12.24, 12.54, 12.54, 12.74, 12.74, 12.54, 12.54, 12.65, 13.03, 12.65, 12.65, 12.27, 12.27, 12.53, 12.53, 12.53, 12.14, 12.26, 12.26, 11.87, 11.87, 11.72, 11.33, 11.6, 11.6, 11.06, 11.06, 11.06, 11.06, 10.8, 10.8, 10.8, 10.8, 10.8, 10.65, 10.24, 10.24, 9.83, 9.55, 9.13, 9.04, 8.84, 8.42, 8.34, 8.12, 7.69, 8.24, 8.24, 8.38, 8.8, 8.73, 8.85, 10.28, 9.2, 8.55, 6.95, 6.64, 6.64, 6.64, 6.64, 6.64, 5.7, 9.67, 12.14, 13.41, 14.66, 17.23, 23.59, 27.7, 21.01, 18.33, 16.07, 13.86, 12.58, 9.17, 10.79, 10.99, 9.5, 8.85, 8.85, 8.85, 9.77, 9.77, 9.77, 10.39, 10.65, 10.65, 10.65, 10.65, 10.65, 11.23, 11.23, 11.58, 11.88, 12.24, 12.24, 12.24, 12.24, 12.24, 12.54, 12.54, 12.54, 12.17, 12.54, 12.54, 12.47, 12.47, 12.65, 12.27, 12.27, 12.27, 12.53, 12.53, 12.53, 12.14, 12.26, 11.87, 11.87, 11.87, 11.33, 11.33, 11.6, 11.46, 11.46, 11.06, 11.06, 11.06, 10.8, 10.8, 10.8, 10.8, 10.4, 10.0, 10.24, 9.83, 9.72, 9.32, 9.55, 9.13, 8.63, 8.42, 7.93, 7.93, 8.12, 8.06, 8.24, 8.24, 8.67, 8.56, 8.67, 8.94, 9.11, 10.6, 8.55, 7.81, 7.81, 7.81, 7.81, 8.18, 9.75, 11.28, 12.27, 13.41, 14.47, 16.17, 22.55, 27.63, 22.34, 19.67, 17.82, 16.37, 15.71, 14.18, 12.72, 11.99, 11.12, 10.79, 10.79, 10.79, 9.77, 9.77, 10.06, 10.06, 10.06, 10.65, 10.65, 10.65, 10.65, 10.99, 11.23, 11.88, 11.88, 12.24, 12.24, 12.24, 12.24, 12.54, 12.54, 12.54, 12.17, 12.17, 12.54, 12.54, 12.47, 12.47, 12.09, 12.09, 12.09, 12.09, 12.53, 12.53, 12.14, 12.39, 12.26, 11.87, 11.87, 11.47, 11.33, 11.33, 11.6, 11.46, 11.46, 11.46, 11.06, 11.06, 10.52, 10.8, 10.8, 10.8, 10.4, 10.0, 10.24, 9.83, 9.32, 9.32, 9.55, 9.13, 8.63, 8.42, 8.42, 7.93, 8.12, 8.06, 8.06, 8.24, 8.67, 8.63, 8.73, 8.82, 9.39, 11.18, 10.28, 10.73, 8.91, 9.83, 9.83, 9.33, 10.28, 10.73, 12.07, 12.96, 14.07, 15.3, 20.75, 27.69, 21.9, 20.5, 18.56, 18.41, 17.35, 16.05, 14.15, 12.21, 11.97, 11.12, 11.12, 11.12, 10.06, 10.06, 10.06, 10.06, 10.06, 10.06, 10.3, 10.65, 10.65, 10.99, 11.29, 11.88, 11.88, 11.88, 11.88, 11.88, 11.88, 12.17, 12.17, 12.17, 12.17, 12.17, 12.17, 12.17, 12.47, 12.09, 12.09, 12.09, 12.09, 12.09, 12.38, 11.99, 11.99, 12.26, 11.87, 11.87, 11.87, 11.33, 11.33, 11.33, 11.6, 11.46, 11.46, 11.06, 11.06, 11.06, 10.52, 10.8, 10.8, 10.4, 10.4, 10.0, 10.0, 9.83, 9.72, 9.32, 9.32, 9.13, 8.63, 8.63, 8.42, 7.93, 7.93, 8.12, 8.06, 8.12, 8.48, 8.63, 8.48, 8.85, 9.39, 9.39, 9.39, 11.62, 9.39, 9.83, 9.83, 9.83, 10.28, 10.73, 11.62, 12.96, 13.8, 14.6, 18.74, 25.03, 23.98, 20.63, 20.0, 19.52, 18.39, 16.7, 15.35, 13.65, 11.97, 11.6, 11.6, 11.6, 10.06, 10.06, 10.06, 10.06, 10.06, 10.06, 10.3, 10.65, 10.65, 10.99, 11.29, 11.88, 11.88, 11.88, 11.88, 11.88, 11.88, 12.17, 12.17, 12.17, 12.17, 12.17, 12.17, 12.17, 12.47, 12.09, 12.09, 12.09, 12.09, 12.09, 12.38, 11.99, 11.99, 12.26, 11.87, 11.87, 11.87, 11.33, 11.33, 11.33, 11.6, 11.46, 11.46, 11.06, 11.06, 11.06, 10.52, 10.8, 10.8, 10.4, 10.4, 10.0, 10.0, 9.83, 9.72, 9.32, 9.32, 9.13, 8.63, 8.63, 8.42, 7.93, 7.93, 8.12, 8.06, 8.12, 8.48, 8.63, 8.48, 8.85, 9.39, 9.39, 9.39, 11.62, 9.39, 9.83, 9.83, 9.83, 10.28, 10.73, 11.62, 12.52, 13.41, 14.3, 16.09, 20.09, 23.49, 20.6, 20.23, 20.01, 19.08, 18.16, 16.46, 14.75, 12.3, 12.14, 12.14, 12.14]}, {"header": {"dx": 0.06612293990616946, "dy": 0.0552356325346848, "nx": 98, "ny": 59, "la1": 35.046912555036876, "la2": 31.78801023549047, "lo1": -121.43107172385933, "lo2": -114.95102361305473, "refTime": "2026041705", "parameterCategory": 1, "parameterNumber": 3}, "data": [-15.54, -15.66, -15.25, -14.65, -14.39, -13.51, -13.26, -12.73, -12.5, -12.74, -12.79, -12.56, -13.86, -12.96, -8.53, -5.2, -5.2, -5.0, -5.2, -8.85, -7.19, -7.19, -6.45, -6.2, -7.9, -9.3, -10.8, -12.14, -11.84, -12.07, -12.52, -12.58, -10.41, -6.2, -2.49, -2.39, -1.84, -1.84, 0.0, -9.75, -9.83, -11.18, -10.79, -10.41, -11.06, -11.93, -14.72, -16.29, -6.75, 8.31, 11.64, 11.2, 9.89, 10.3, 10.3, 9.61, 8.97, 8.05, 7.0, 7.0, 6.35, 7.0, 8.06, 6.8, 6.8, 6.35, 5.5, 5.09, 4.42, 3.16, 2.97, 2.07, 1.2, 1.3, 1.3, 1.11, 0.92, 0.0, -0.92, -1.23, 0.0, 0.0, -11.6, -11.87, -10.8, -9.08, -6.21, -5.75, -4.4, -4.62, -5.6, -6.31, -7.13, -7.59, -7.59, -7.36, -6.43, -5.8, -15.35, -15.35, -15.46, -14.65, -14.39, -14.13, -13.51, -13.02, -12.79, -12.56, -12.17, -13.7, -13.01, -11.2, -12.96, -0.0, -4.8, -5.4, -8.53, -9.67, -9.48, -9.17, -7.19, -7.19, -7.59, -7.9, -9.3, -10.8, -10.8, -12.14, -14.3, -13.86, -11.87, -4.4, -2.54, -2.17, -1.58, -1.47, -1.84, -5.7, -12.27, -13.23, -12.14, -12.94, -14.53, -16.44, -17.22, -7.47, 11.09, 12.0, 11.2, 10.75, 10.75, 10.1, 10.1, 9.61, 8.97, 8.16, 7.49, 6.47, 7.0, 7.38, 7.38, 7.38, 7.38, 5.81, 5.5, 5.09, 3.37, 2.97, 3.05, 2.13, 1.23, 0.0, 0.0, 0.0, 0.0, 0.0, -0.92, -1.23, 0.0, 0.0, -11.6, -11.87, -10.8, -9.08, -6.21, -5.75, -4.4, -4.62, -5.6, -6.31, -7.13, -7.59, -7.59, -7.36, -6.43, -5.8, -15.35, -15.35, -15.14, -14.88, -14.65, -14.13, -13.76, -13.26, -12.65, -12.41, -12.36, -12.04, -12.87, -10.79, -8.22, 0.0, -11.62, -10.4, -11.71, -12.3, -9.3, -8.85, -7.82, -9.48, -9.8, -7.59, -7.59, -8.93, -9.3, -10.79, -13.7, -14.75, -13.57, -11.18, -6.01, -4.96, -3.15, -2.83, -3.87, -5.98, -10.04, -13.77, -16.2, -17.44, -16.97, -15.17, -4.23, 10.73, 12.27, 11.68, 10.75, 10.75, 10.75, 10.01, 10.43, 9.33, 8.72, 8.4, 7.49, 7.49, 8.05, 8.43, 8.43, 7.82, 6.8, 6.47, 4.95, 4.6, 3.28, 2.0, 1.88, 1.0, 0.0, 0.0, 0.0, 0.0, 0.0, 0.0, -0.84, -1.34, 0.0, -4.24, -9.17, -12.07, -11.4, -9.67, -7.15, -5.54, -5.43, -5.93, -7.36, -8.18, -8.72, -9.11, -8.31, -7.79, -6.79, -5.93, -15.35, -15.35, -15.14, -14.55, -14.65, -14.04, -13.77, -13.51, -12.89, -12.41, -12.18, -12.17, -13.28, -11.2, -8.53, -8.22, -8.22, -12.07, -11.62, -11.71, -10.84, -9.3, -7.9, -7.36, -7.85, -7.78, -4.6, -5.46, -8.18, -10.0, -10.8, -12.74, -13.99, -13.02, -12.52, -8.93, -7.27, -5.52, -7.51, -9.13, -12.36, -15.99, -16.99, -13.76, -8.83, 0.0, 8.31, 8.94, 10.43, 10.43, 10.43, 10.75, 9.6, 10.43, 10.43, 9.71, 7.82, 7.49, 7.49, 8.05, 7.82, 8.43, 7.59, 7.59, 6.1, 4.81, 4.6, 4.03, 4.23, 3.11, 2.95, 0.98, 0.0, 0.0, -1.3, -2.48, -2.24, -0.95, -1.01, -1.38, -3.68, -4.98, -10.79, -11.62, -11.18, -11.4, -9.42, -7.65, -7.08, -8.05, -8.61, -8.72, -8.56, -8.66, -8.3, -8.49, -6.96, -5.99, -15.35, -15.14, -15.14, -14.55, -14.55, -14.4, -13.76, -13.49, -12.89, -12.37, -12.56, -12.39, -13.28, -11.6, -10.04, -10.04, -9.67, -11.45, -11.62, -12.07, -12.58, -8.85, -8.22, -5.98, -5.69, -7.54, -7.51, -8.53, -10.6, -9.97, -10.52, -10.46, -10.4, -11.62, -14.3, -13.57, -13.59, -11.28, -13.01, -14.1, -12.7, -10.75, -4.98, 0.0, 1.96, 3.81, 5.63, 6.4, 9.22, 10.75, 10.43, 9.16, 10.12, 10.43, 9.6, 8.18, 7.38, 7.0, 7.49, 6.8, 7.16, 7.93, 7.93, 6.6, 5.67, 3.72, 3.82, 3.72, 5.39, 5.18, 4.77, 3.11, 3.38, 0.0, -1.73, -3.73, -3.98, -2.18, -0.92, -2.2, -5.11, -5.8, -8.53, -11.18, -10.6, -11.62, -10.55, -8.64, -9.4, -10.25, -9.49, -8.56, -8.37, -9.17, -9.17, -8.83, -7.19, -6.44, -15.35, -15.14, -15.14, -14.55, -14.55, -14.3, -14.04, -13.49, -12.87, -12.73, -12.5, -12.36, -11.44, -10.79, -10.41, -10.8, -10.8, -10.8, -11.84, -12.07, -11.28, -10.04, -9.48, -7.44, -6.44, -7.54, -8.53, -10.35, -12.58, -12.07, -9.83, -10.28, -9.97, -10.35, -12.07, -13.82, -13.19, -11.35, -11.87, -11.9, -10.87, -10.12, -2.72, 0.0, 0.0, 1.83, 5.81, 7.93, 10.12, 8.94, 8.31, 8.66, 8.66, 9.16, 8.57, 7.82, 5.99, 7.16, 6.8, 6.1, 6.73, 6.51, 6.6, 5.19, 3.62, 3.82, 2.87, 4.35, 5.81, 5.92, 5.31, 5.68, 5.17, 3.68, 1.41, -1.5, -4.24, -3.73, -2.13, -1.08, -5.99, -7.56, -8.49, -11.62, -11.55, -11.58, -10.96, -11.25, -11.76, -11.06, -10.12, -9.4, -9.1, -9.64, -9.96, -9.48, -7.78, -6.44, -14.82, -14.82, -14.82, -14.22, -14.22, -14.3, -13.68, -13.76, -12.84, -12.62, -12.5, -11.97, -12.27, -9.17, -9.48, -9.67, -10.8, -10.73, -11.5, -11.3, -11.98, -12.56, -9.8, -9.17, -9.5, -9.46, -9.86, -11.3, -12.04, -10.32, -11.18, -9.33, -9.54, -9.39, -11.18, -12.96, -12.47, -12.33, -9.67, -8.55, -11.2, -11.6, -12.27, -9.49, -5.81, 2.98, 11.38, 9.73, 9.8, 8.31, 8.58, 8.31, 8.94, 8.18, 7.1, 6.2, 6.4, 4.52, 5.31, 5.15, 4.98, 3.85, 4.0, 2.65, 2.72, 4.01, 4.47, 5.09, 4.95, 4.02, 3.79, 3.62, 3.69, 2.72, 1.98, 1.13, -1.26, -4.71, -5.45, -4.24, -4.47, -8.22, -9.76, -11.64, -12.03, -12.18, -13.35, -13.51, -12.84, -11.82, -11.45, -12.08, -10.18, -10.91, -12.45, -11.12, -8.24, -6.92, -14.46, -14.46, -14.22, -14.22, -14.22, -13.96, -13.68, -13.05, -12.77, -12.22, -12.37, -12.2, -11.17, -10.73, -9.8, -8.53, -10.73, -11.16, -11.26, -10.41, -7.82, -4.65, -12.58, -11.09, -10.98, -10.55, -11.03, -11.44, -10.4, -10.0, -10.96, -11.62, -10.84, -10.52, -10.91, -11.18, -11.18, -10.96, -11.2, -9.97, -10.0, -10.8, -11.6, -11.53, 0.0, 15.27, 12.52, 10.3, 9.44, 7.36, 7.51, 8.05, 8.66, 7.69, 5.46, 4.87, 4.87, 3.36, 2.63, 2.54, 2.45, 1.33, 1.51, 3.07, 4.62, 6.31, 4.88, 3.07, 1.34, 0.0, 0.0, 0.0, 0.0, 0.0, 0.95, 0.87, 0.0, -1.11, -4.43, -6.05, -5.81, -8.31, -9.84, -11.34, -11.95, -13.21, -13.86, -14.11, -13.51, -12.52, -12.68, -12.32, -10.99, -13.86, -13.41, -10.41, -9.02, -7.72, -14.46, -14.46, -14.22, -14.22, -13.96, -13.96, -13.68, -13.05, -12.77, -12.49, -12.26, -11.88, -14.38, -11.99, -11.64, -11.6, -11.64, -11.64, -11.6, -10.01, -6.94, 0.0, 0.0, 0.0, -13.41, -10.41, -8.54, -8.73, -9.16, -9.32, -11.53, -12.07, -12.45, -12.0, -11.18, -10.28, -10.73, -10.58, -11.03, -10.84, -12.52, -12.52, -12.52, 0.0, 14.3, 13.86, 11.38, 9.42, 8.28, 9.49, 9.22, 8.1, 7.44, 6.2, 5.46, 3.81, 1.72, 1.43, 1.38, 0.0, 0.0, 0.0, 1.89, 4.3, 6.34, 5.81, 3.92, 1.34, 0.0, -2.24, -2.28, -1.93, -1.03, -0.92, -0.92, -2.02, -1.96, -1.71, -3.36, -4.81, -4.95, -7.16, -10.51, -12.03, -11.47, -12.13, -13.33, -13.51, -12.68, -11.44, -10.45, -11.38, -12.96, -9.48, -13.41, -10.61, -9.08, -9.02, -14.1, -14.22, -14.22, -14.22, -13.96, -13.96, -13.34, -13.05, -12.36, -12.42, -12.43, -12.42, -11.53, -11.6, -13.28, -12.45, -12.87, -13.02, -13.44, -12.58, -12.14, -11.5, -8.1, -4.24, -9.48, -12.07, -7.87, -8.22, -10.73, -11.45, -12.52, -14.3, -13.86, -11.84, -11.03, -11.62, -10.41, -8.48, -11.62, -12.52, -0.0, 0.0, 0.0, 0.0, 0.0, 0.0, 0.0, 6.4, 8.68, 11.06, 9.22, 10.43, 7.93, 6.2, 4.38, 2.02, 0.0, 0.0, -1.55, -1.55, 0.0, 2.72, 7.8, 8.28, 7.2, 5.01, 4.34, 2.45, -1.25, -3.76, -4.66, -4.03, -2.97, -3.16, -4.3, -4.66, -5.28, -4.65, -4.31, -3.83, -3.79, -4.43, -11.13, -13.51, -12.39, -11.64, -11.75, -11.42, -10.47, -10.28, -10.23, -12.14, -10.41, -12.04, -12.58, -10.56, -10.12, -10.01, -13.87, -13.87, -14.22, -13.9, -13.62, -13.96, -13.34, -12.65, -12.71, -12.36, -12.08, -11.73, -12.07, -11.79, -13.68, -13.07, -13.48, -13.28, -13.81, -13.99, -15.34, -15.49, -14.55, -11.87, -11.6, -10.73, -9.75, -6.95, -8.82, -12.14, -11.91, -8.18, -0.0, -4.4, -7.68, -10.79, -11.62, 0.0, 0.0, 0.0, 12.96, 12.52, 0.0, 0.0, 0.0, 0.0, 0.0, 11.2, 12.3, 11.99, 12.65, 12.57, 10.05, 8.28, 5.98, 3.24, 2.72, 0.0, -2.19, 0.0, 9.67, 12.64, 12.71, 11.38, 10.47, 10.98, 11.8, 9.92, 4.18, -1.61, -3.01, -3.58, -3.9, -5.09, -5.85, -6.36, -5.77, -6.09, -7.5, -6.43, -4.81, -3.39, -5.09, -14.85, -14.65, -12.74, -12.16, -12.05, -10.99, -10.47, -8.85, -11.87, -12.14, -12.52, -11.64, -11.41, -10.94, -12.04, -13.87, -13.87, -14.22, -13.9, -13.62, -13.62, -12.99, -12.65, -12.36, -12.71, -12.36, -11.73, -11.77, -11.82, -11.2, -10.96, -9.17, -9.36, -10.38, -11.28, -11.64, -12.56, -13.2, -15.04, -13.01, -11.87, -12.07, 0.0, -0.0, -4.8, -5.0, -0.0, 4.8, 2.02, -0.0, -6.44, -5.95, -0.0, 0.0, 12.07, 11.2, 10.8, 5.2, 0.0, 0.0, 0.0, 12.07, 12.52, 12.96, 13.86, 13.88, 14.79, 15.02, 14.22, 13.59, 13.59, 12.57, 8.4, 0.0, 13.86, 17.88, 17.39, 15.24, 14.71, 14.39, 17.45, 19.41, 18.97, 15.88, 11.06, 5.99, 3.01, 0.0, -4.18, -6.87, -5.98, -6.24, -8.68, -8.91, -7.76, -6.74, -2.88, 0.0, -17.53, -17.98, -16.88, -14.51, -12.65, -11.93, -10.94, -10.61, -10.79, -11.62, -11.62, -11.87, -11.77, -12.14, -12.96, -13.87, -13.87, -13.55, -13.62, -13.62, -13.62, -12.99, -12.66, -12.36, -12.03, -11.72, -11.73, -11.77, -11.76, -11.7, -10.59, -9.2, -8.46, -8.15, -7.89, -8.31, -6.6, -7.15, -6.6, -4.52, -3.81, -2.63, 0.0, 10.8, 1.93, -2.19, -0.0, 2.6, 2.49, 5.7, 3.25, 4.6, 10.0, 11.18, 11.18, 11.62, 11.62, 7.9, 0.0, 0.0, 7.59, 10.4, 10.8, 12.96, 13.41, 12.52, 11.99, 10.12, 6.8, 7.6, 12.96, 16.74, 13.68, 0.0, 10.8, 15.99, 16.22, 16.7, 15.41, 18.08, 19.6, 20.75, 22.39, 20.94, 20.83, 17.3, 13.96, 5.02, 0.0, -3.87, -5.2, -8.18, -8.53, -8.53, -7.4, -6.34, -2.72, -3.9, -16.54, -16.99, -16.79, -16.59, -15.45, -14.13, -12.27, -12.11, -11.28, -11.06, -11.28, -11.39, -12.18, -12.79, -13.41, -13.87, -13.28, -13.62, -13.62, -13.62, -13.62, -12.99, -12.66, -12.35, -12.02, -11.72, -11.41, -11.41, -11.76, -11.7, -11.35, -11.26, -9.67, -9.16, -8.46, -8.06, -7.38, -6.24, -5.02, -4.19, -3.69, -3.42, -1.34, 0.0, 0.0, 0.0, -0.0, -0.0, 4.4, 6.95, 8.8, 9.33, 10.28, 10.28, 10.73, 0.0, 0.0, 0.0, -10.28, 0.0, 7.27, 6.64, 7.9, -0.0, -0.0, -0.0, 0.0, -12.07, -12.07, -12.52, -12.52, 0.0, 0.0, 0.0, 13.86, 13.53, 15.65, 15.9, 16.82, 16.22, 15.96, 16.54, 17.09, 18.2, 18.68, 18.34, 15.8, 9.71, 1.45, -1.58, -5.18, -4.01, 0.0, 0.0, 0.0, 0.0, -2.72, -5.81, -14.11, -15.65, -15.54, -15.09, -16.39, -15.59, -14.79, -13.07, -10.84, -10.91, -11.87, -11.55, -12.3, -12.71, -12.96, -13.28, -13.28, -13.62, -13.62, -13.62, -13.66, -13.33, -12.99, -12.35, -12.02, -11.38, -11.06, -11.38, -11.38, -11.29, -11.9, -11.42, -11.35, -10.31, -9.42, -8.99, -8.06, -7.54, -6.73, -5.57, -4.5, -3.3, -2.72, -1.02, 0.0, 0.0, 0.0, 0.0, 0.0, 10.28, 10.28, 10.73, 9.83, 10.0, 0.0, 0.0, -7.59, -6.95, -9.83, 0.0, 8.8, 8.8, 9.2, -0.0, -0.0, -0.0, -11.18, -10.73, -9.39, 0.0, 0.0, -11.62, -6.2, -2.27, 14.51, 12.83, 12.96, 13.59, 14.03, 14.47, 14.11, 15.36, 15.77, 12.87, 17.25, 15.48, 11.9, 9.2, 2.45, -2.63, 0.0, 9.67, 9.2, 7.6, 4.67, 2.47, 0.0, -4.95, -10.47, -12.58, -14.66, -13.59, -14.71, -14.94, -15.36, -15.52, -12.72, -11.13, -11.76, -11.99, -11.6, 0.0, 0.0, -13.28, -13.28, -13.62, -13.62, -13.33, -13.66, -13.33, -12.98, -12.01, -11.7, -11.38, -11.38, -11.38, -11.31, -11.59, -11.59, -11.48, -10.99, -10.73, -9.47, -9.09, -7.91, -7.11, -6.34, -5.35, -4.12, -3.52, -2.25, -1.59, -0.87, 0.0, 0.0, 0.0, 0.0, 7.27, 8.94, 10.28, 9.97, 9.6, 0.0, -6.64, -4.2, -4.6, 0.0, 9.83, 8.4, 8.18, 9.2, 10.28, 10.28, 0.0, 0.0, 0.0, 0.0, 0.0, 0.0, -4.6, -3.68, 3.58, 12.52, 11.21, 11.28, 9.67, 11.45, 11.45, 12.3, 12.71, 14.75, 14.39, 15.74, 9.6, 2.33, 0.0, -5.94, -10.75, 15.25, 15.64, 12.36, 10.17, 9.71, 9.71, 7.22, 0.0, -8.18, -11.21, -11.02, -13.09, -12.88, -12.71, -13.02, -14.53, -12.58, -12.58, -12.52, -11.02, -9.53, 0.0, 0.0, -13.28, -13.28, -13.33, -13.33, -12.98, -13.31, -13.31, -12.64, -12.67, -12.01, -11.38, -11.03, -11.34, -11.31, -11.62, -11.19, -11.19, -11.08, -10.59, -9.67, -8.74, -7.6, -6.69, -5.89, -4.23, -3.42, -2.76, -2.08, -2.17, -1.53, -1.56, -1.63, -1.83, 0.0, 0.0, 6.64, 8.18, 7.59, 4.6, 0.0, -6.95, -8.0, 0.0, 0.0, 9.83, 9.83, 9.75, 10.28, 10.28, 10.28, 10.28, 7.59, 7.9, 7.59, 4.8, 0.0, 0.0, 2.6, 8.53, 10.37, 10.01, 7.9, 5.95, 9.6, 10.73, 10.28, 11.62, 11.62, 12.39, 4.23, -3.6, -8.2, -12.64, -17.48, 0.0, 18.41, 17.19, 15.22, 13.91, 13.28, 13.46, 10.13, 6.31, 0.0, -13.57, -11.62, -12.07, -12.96, -12.94, -12.62, -13.43, -12.94, -12.2, -12.04, -11.83, -9.27, 0.0, 0.0, -13.28, -12.99, -13.33, -12.98, -12.98, -13.31, -12.96, -12.64, -12.67, -12.01, -11.7, -11.03, -11.34, -10.94, -11.24, -10.51, -11.08, -11.08, -9.95, -9.17, -7.97, -7.3, -6.52, -5.09, -2.88, -2.08, -2.72, -2.65, -2.76, -3.42, -2.93, -3.13, -2.49, -1.64, -1.07, 0.0, 0.0, 0.0, 0.0, -3.11, -3.11, -4.4, -4.4, -4.6, 0.0, 10.28, 10.73, 10.28, 10.28, 9.75, 9.75, 7.27, 7.27, 7.27, 7.27, 5.7, 5.7, 6.44, 7.9, 7.9, 7.24, 6.97, 5.95, 10.73, 10.41, 9.64, 9.39, 10.28, 0.0, -8.05, -7.92, -8.8, -6.22, 0.0, 6.47, 14.13, 14.3, 11.04, 10.91, 10.77, 10.13, 8.0, 2.94, -9.48, -12.52, -12.52, -12.71, -12.96, -13.15, -13.7, -13.57, -12.42, -11.33, -11.3, -12.47, -9.17, 1.38, 1.38, -12.99, -12.99, -12.99, -12.66, -12.98, -12.64, -12.96, -12.64, -12.64, -12.33, -11.7, -11.34, -11.34, -11.24, -10.94, -12.02, -10.89, -10.05, -9.28, -8.06, -7.11, -7.8, -7.67, -6.69, -5.62, -4.23, -3.73, -4.81, -5.26, -4.17, -3.64, -3.1, -2.47, -1.6, -1.7, -1.92, -2.02, -3.39, -4.15, -3.39, -4.4, -3.25, -3.53, 0.0, 3.68, 7.59, 8.93, 8.55, 8.55, 8.55, 8.55, 8.55, 8.55, 8.55, 8.55, 8.23, 7.27, 7.9, 7.24, 6.97, 5.2, 6.45, 7.9, 9.83, 9.83, 9.39, 9.39, 8.55, 0.0, -2.35, -2.22, 1.25, 2.43, 3.65, 4.2, 2.72, 0.0, 0.0, 0.0, 1.58, 0.0, -2.16, -5.09, -7.51, -13.01, -13.15, -13.15, -11.6, -12.89, -13.23, -14.03, -12.56, -11.34, -10.68, -11.53, -6.4, 3.01, 3.01, -12.99, -12.99, -12.99, -12.66, -12.98, -12.64, -12.64, -12.64, -12.28, -11.97, -12.01, -11.34, -11.34, -11.29, -11.29, -10.51, -10.05, -9.87, -10.76, -9.17, -8.2, -8.94, -9.42, -9.43, -9.16, -7.42, -6.18, -4.86, -5.02, -3.66, -3.04, -2.45, -1.71, -1.71, -1.77, -1.76, -1.92, -1.92, -1.92, -1.84, -1.92, -0.97, -1.01, 0.0, 2.19, 4.32, 4.6, 5.7, 5.7, 6.95, 8.18, 8.55, 8.93, 9.3, 8.18, 8.8, 8.94, 7.59, 6.44, 5.2, 3.53, 7.59, 10.73, 10.73, 10.28, 10.28, 10.14, 9.58, 6.7, 4.24, 2.52, 4.27, 3.97, 2.02, 0.0, -2.65, -7.2, -10.19, -6.84, -5.37, -3.39, -3.59, -3.69, 0.0, 0.0, -3.25, 0.0, 3.14, -7.19, -5.6, -11.16, -11.16, -10.37, -9.84, -8.05, 0.0, 2.89, 2.89, -12.99, -12.99, -12.99, -12.66, -12.33, -12.33, -12.64, -12.28, -12.28, -12.28, -11.29, -10.99, -10.99, -11.29, -11.29, -10.87, -10.15, -9.95, -9.71, -10.36, -10.13, -8.84, -9.23, -8.77, -8.28, -7.76, -5.72, -4.79, -3.47, -2.93, -2.28, -1.64, -1.64, -1.77, -1.91, -1.84, -1.84, -1.76, -1.76, -0.93, -0.86, 0.0, 0.0, 0.0, 0.97, 1.98, 1.93, 4.6, 5.7, 5.7, 5.46, 5.7, 7.59, 9.3, 9.6, 9.2, 9.58, 7.9, 6.97, 5.0, 7.9, 11.18, 10.73, 10.84, 10.28, 10.73, 10.58, 11.09, 9.84, 9.13, 9.2, 8.63, 6.68, 0.0, -4.36, -7.15, -13.04, -13.96, -12.24, -9.33, -4.95, -1.56, 0.0, 2.91, 5.46, 4.98, 6.0, 4.98, 3.68, 0.0, -4.65, -8.38, -8.31, -7.44, -5.15, 0.0, 1.83, 1.83, -12.66, -12.99, -12.99, -12.33, -12.33, -12.33, -12.33, -12.28, -12.28, -11.97, -11.29, -10.99, -10.99, -11.29, -10.87, -10.87, -10.43, -9.88, -9.97, -9.92, -9.23, -8.12, -7.69, -7.62, -7.76, -6.52, -5.5, -4.18, -2.72, -2.02, -2.1, -1.44, -1.54, -1.64, -1.77, -1.84, -1.91, -1.91, -1.84, -0.93, -0.86, -0.86, 0.0, 0.0, 0.0, 0.97, 1.76, 1.93, 2.49, 3.25, 3.25, 5.95, 7.59, 9.3, 10.41, 10.0, 11.03, 10.87, 9.97, 9.6, 10.28, 10.41, 11.02, 11.18, 11.18, 11.18, 11.62, 11.95, 12.14, 14.18, 14.65, 16.74, 13.77, 3.41, -7.47, -10.01, -13.88, -15.87, -15.01, -13.23, -9.61, -5.23, 0.0, 3.69, 3.47, 4.24, 2.63, 0.0, -2.09, 0.0, -3.82, -6.65, -7.93, -5.31, -2.81, 0.0, 0.0, 0.0, -12.66, -12.66, -12.66, -12.67, -12.33, -12.33, -12.33, -11.97, -11.97, -11.97, -11.29, -10.99, -10.99, -10.59, -10.87, -10.87, -10.53, -10.25, -9.92, -9.87, -8.71, -7.76, -6.87, -6.66, -6.32, -6.16, -5.5, -4.88, -3.37, -3.31, -2.63, -2.02, -1.98, -2.14, -2.28, -1.64, -1.77, -1.77, -1.77, -1.77, -0.89, -0.89, -0.89, 0.0, 0.0, 0.0, 0.0, 0.0, 0.0, 3.25, 3.25, 5.95, 7.59, 9.3, 10.18, 10.41, 10.96, 12.46, 12.04, 8.72, 9.39, 10.08, 11.62, 11.62, 11.18, 11.18, 11.46, 11.02, 11.46, 12.52, 13.86, 16.96, 4.72, 7.69, -0.0, -9.26, -12.42, -13.77, -15.01, -14.26, -11.39, -10.3, -5.49, -1.94, -2.09, -2.28, -2.72, -5.31, -7.54, -4.18, -4.55, -2.63, -2.81, 0.0, 0.0, 0.0, 0.0, 0.0, -12.35, -12.35, -12.35, -12.35, -12.33, -12.33, -12.33, -11.97, -11.97, -11.97, -11.29, -10.99, -10.99, -10.59, -10.87, -10.53, -10.53, -9.92, -9.92, -9.42, -8.94, -8.21, -7.0, -6.8, -5.87, -6.05, -5.41, -4.74, -4.12, -4.18, -3.31, -2.72, -2.67, -2.72, -2.02, -2.06, -2.19, -1.58, -1.64, -1.64, -0.83, -0.83, -0.89, 0.0, 0.0, 0.0, 0.0, 0.0, 0.0, 3.53, 3.68, 3.53, 5.95, 7.59, 9.75, 9.75, 10.28, 12.07, 12.96, 10.4, 8.3, 9.39, 11.18, 11.62, 11.18, 12.07, 11.91, 12.14, 11.18, 11.18, 11.18, -5.65, 0.0, 8.91, 8.03, 6.9, 0.0, -12.04, -13.48, -13.59, -11.88, -10.99, -9.87, -8.2, -7.82, -8.18, -8.18, -10.43, -7.82, 9.66, 2.28, 6.0, 3.81, 0.0, 0.0, -2.35, 0.0, 0.0, -12.35, -12.35, -12.35, -12.35, -12.35, -12.01, -11.97, -11.97, -11.97, -11.97, -11.29, -10.65, -10.65, -10.99, -10.25, -10.53, -10.25, -9.92, -9.49, -9.49, -8.94, -8.43, -7.67, -7.47, -6.53, -6.05, -5.25, -4.66, -4.81, -4.05, -3.42, -3.47, -3.25, -2.67, -2.72, -2.66, -1.94, -2.06, -2.06, -1.54, -1.54, -0.77, -0.8, 0.0, 0.0, 0.0, 0.0, 0.0, 0.98, 1.09, 2.6, 2.45, 2.6, 3.39, 7.27, 9.75, 10.28, 9.33, 11.62, 11.2, 9.3, 8.91, 9.83, 10.73, 11.62, 12.07, 12.07, 11.84, 11.84, 8.22, -2.63, -4.5, 0.0, 7.96, 10.92, 8.84, 7.65, 3.07, -10.12, -12.38, -12.08, -11.18, -9.85, -9.06, -9.06, -9.44, -6.6, -7.59, 4.81, 15.04, 14.4, 9.8, 5.92, 1.63, -2.2, -6.2, 0.0, 0.0, -12.02, -12.02, -12.02, -12.01, -12.01, -11.66, -11.66, -11.66, -11.97, -11.97, -11.29, -10.94, -10.65, -10.65, -10.25, -10.25, -9.92, -9.92, -9.49, -9.01, -8.94, -8.43, -8.43, -7.67, -6.73, -6.53, -5.81, -5.09, -4.52, -3.93, -4.11, -3.36, -3.25, -3.41, -2.58, -2.62, -2.66, -1.94, -1.94, -2.06, -1.39, -1.44, -1.48, -0.74, -0.76, 0.0, 0.0, 0.0, 0.0, 0.0, 1.01, 1.23, 0.0, 0.0, 3.53, 7.59, 10.28, 8.8, 9.2, 11.62, 10.04, 11.45, 9.39, 9.83, 11.18, 12.07, 12.52, 12.14, 11.12, 7.51, 0.0, 0.0, 1.3, 6.46, 11.19, 13.57, 11.14, 6.18, -1.61, -11.03, -12.33, -11.94, -11.8, -10.18, -8.94, -7.76, -3.69, 0.0, 8.85, 13.03, 12.01, 10.33, 5.99, 3.52, 0.0, 0.0, 6.2, 6.2, -11.7, -11.7, -11.7, -12.01, -11.66, -11.66, -11.66, -11.66, -11.66, -11.66, -11.29, -11.29, -10.65, -10.65, -10.65, -9.92, -9.92, -9.92, -9.49, -9.01, -9.01, -8.21, -8.21, -7.67, -7.47, -6.73, -5.99, -5.25, -5.09, -4.38, -3.85, -3.85, -3.73, -3.14, -3.19, -2.58, -2.72, -2.62, -2.76, -2.66, -1.94, -2.14, -2.14, -1.33, -0.68, -0.74, 0.0, 0.0, 0.0, 0.0, 0.0, 0.0, 0.0, 0.0, 0.0, 3.39, 9.6, 9.2, 6.64, 9.2, 12.07, 11.02, 10.96, 10.73, 12.52, 11.62, 12.07, 11.6, 9.17, 5.8, 0.0, 0.0, 0.0, 2.4, 7.47, 12.76, 8.91, 4.27, 0.0, -9.33, -11.46, -11.88, -11.79, -9.9, -9.8, -9.06, -6.35, -2.57, 5.64, 8.85, 5.64, 2.05, 3.92, 3.72, 2.72, 4.52, 7.36, 7.36, -11.7, -11.7, -11.7, -11.66, -11.66, -11.66, -11.66, -11.66, -11.66, -11.66, -11.29, -11.29, -10.94, -10.94, -10.53, -9.92, -9.92, -9.92, -9.49, -9.49, -9.01, -8.51, -8.21, -7.47, -7.47, -6.73, -6.53, -5.99, -5.81, -5.09, -4.38, -4.38, -3.85, -3.73, -3.19, -3.19, -2.72, -2.72, -2.62, -2.76, -2.66, -2.02, -2.06, -1.28, -1.3, -0.71, -0.68, -0.73, -0.7, 0.0, 0.0, 0.0, 0.0, 0.0, 0.0, 0.0, 5.0, 10.73, 7.27, 8.55, 11.18, 11.18, 11.18, 12.07, 11.62, 12.52, 12.72, 0.0, -8.53, 0.0, 0.0, 0.0, -1.33, -1.25, 0.0, -1.31, -2.77, -1.28, 0.0, -8.55, -11.18, -11.15, -11.72, -10.19, -9.26, -9.8, -8.85, -3.07, 0.0, 2.89, 0.0, 0.0, 1.37, 3.33, 5.56, 7.0, 7.28, 7.28, -11.7, -11.7, -11.36, -11.36, -11.66, -11.66, -11.66, -11.29, -11.29, -11.29, -11.29, -11.29, -11.29, -10.94, -10.53, -9.92, -9.92, -9.92, -9.49, -9.49, -9.01, -8.77, -7.98, -7.98, -7.26, -6.73, -6.53, -5.99, -5.81, -5.25, -5.09, -4.38, -4.58, -3.85, -3.73, -3.19, -3.19, -3.35, -2.62, -2.62, -2.66, -2.66, -2.06, -2.37, -1.33, 0.0, -0.62, -1.3, -1.45, -0.73, -0.86, -0.82, -0.85, -0.85, -1.07, -1.52, 0.0, 11.62, 10.73, 10.6, 10.84, 11.18, 12.07, 12.52, 12.07, 12.96, 13.72, 12.52, -11.62, -11.62, 3.36, 4.66, 1.25, -2.4, -7.21, -10.17, -10.74, -6.47, -1.56, 0.0, -12.14, -10.25, -11.62, -10.15, -9.69, -8.73, -6.0, 0.0, 0.0, 0.0, 3.58, 6.8, 6.16, 4.42, 6.69, 7.6, 8.21, 8.21, -11.7, -11.7, -11.36, -11.36, -11.66, -11.66, -11.29, -11.29, -11.29, -11.29, -11.29, -11.29, -11.29, -10.94, -10.53, -9.92, -9.92, -9.49, -9.49, -9.23, -8.77, -8.77, -8.53, -8.05, -7.26, -7.05, -6.53, -5.99, -5.81, -5.25, -5.09, -5.09, -4.38, -4.43, -3.73, -3.77, -3.77, -3.19, -3.23, -3.23, -2.62, -2.66, -2.66, -1.98, -1.58, -1.16, -1.11, -2.15, -2.31, -2.51, -1.7, -1.56, -0.79, -0.85, -1.76, -2.1, -1.39, 0.0, 10.4, 11.18, 10.18, 11.18, 12.07, 11.62, 12.07, 12.42, 13.41, 14.03, 11.18, 0.0, 7.59, 8.05, 7.2, 2.95, -4.01, -10.19, -11.14, -7.8, -3.59, 0.0, -1.9, -12.81, -12.3, -10.61, -6.45, 0.0, 2.72, 0.0, 0.0, 0.0, 6.6, 9.39, 7.0, 5.81, 6.74, 7.37, 7.37, 7.37, -11.7, -11.7, -11.36, -11.36, -11.36, -11.29, -11.29, -11.29, -10.99, -10.99, -11.29, -11.29, -11.29, -10.53, -10.53, -10.25, -9.66, -9.49, -9.49, -9.49, -8.77, -8.53, -8.53, -8.05, -7.32, -7.32, -6.34, -5.81, -5.09, -5.25, -5.25, -5.09, -5.09, -4.58, -4.43, -3.9, -3.77, -3.77, -3.35, -3.23, -3.23, -2.62, -2.66, -2.71, -2.76, -3.47, -2.37, -2.25, -2.31, -2.71, -2.6, -1.69, -1.69, -1.63, -1.76, -1.76, -2.02, 0.0, 2.1, 10.0, 11.18, 11.62, 12.07, 11.62, 11.95, 11.03, 11.53, 12.79, 10.04, 7.27, 7.81, 8.59, 8.68, 9.76, 4.46, -2.79, -8.94, -8.4, -7.4, -4.27, -1.9, -2.12, -4.12, -3.93, 0.0, 1.3, 2.02, 2.56, 2.81, 3.2, 5.18, 5.81, 5.34, 5.35, 5.62, 5.98, 6.31, 6.31, -11.38, -11.38, -11.36, -11.36, -11.36, -10.99, -10.99, -10.99, -10.99, -10.65, -10.65, -10.94, -10.94, -10.53, -10.53, -10.25, -9.66, -9.23, -9.49, -9.23, -8.53, -8.53, -8.53, -7.82, -7.82, -7.32, -6.6, -6.4, -5.81, -5.15, -5.09, -5.09, -5.09, -4.58, -4.58, -4.43, -3.9, -3.9, -3.77, -3.35, -3.23, -3.23, -2.66, -2.66, -2.71, -3.15, -2.56, -1.98, -2.1, -2.51, -2.41, -1.69, -1.76, -1.76, -1.69, -1.69, -2.0, -2.19, 0.0, 2.49, 8.53, 11.62, 11.62, 11.18, 11.62, 10.84, 9.75, 11.62, 10.01, 7.54, 7.27, 7.59, 7.69, 7.22, 7.83, 2.4, -3.0, -8.82, -9.13, -7.17, -3.43, 0.0, 0.85, 0.78, 0.82, 0.8, 0.78, 0.74, 2.02, 2.9, 3.12, 3.76, 4.24, 3.69, 5.11, 4.95, 4.8, 4.8, -11.38, -11.38, -11.05, -11.36, -11.36, -10.99, -10.99, -10.99, -10.65, -10.65, -10.25, -10.25, -10.53, -10.53, -10.53, -10.25, -9.92, -9.23, -9.23, -9.23, -8.53, -8.53, -8.28, -7.82, -7.82, -7.11, -7.11, -6.4, -6.2, -5.99, -5.2, -5.15, -4.58, -4.58, -4.58, -4.58, -4.64, -4.04, -3.9, -3.77, -3.35, -3.35, -3.23, -3.28, -2.56, -2.56, -2.56, -1.86, -1.98, -2.1, -2.15, -2.15, -1.7, -1.63, -1.56, -1.63, -1.63, -2.82, -2.23, 0.0, 2.6, 10.73, 11.62, 10.73, 11.18, 11.18, 10.73, 10.28, 8.22, 7.78, 8.53, 6.2, 2.82, 1.15, 2.44, 3.24, 2.59, 0.0, -7.13, -5.04, -2.97, 0.0, 0.85, 1.62, 0.65, 0.0, 0.0, 0.0, 0.0, 0.96, 1.97, 2.04, 2.11, 2.18, 2.02, 4.18, 3.69, 3.69, -11.38, -11.38, -11.05, -11.05, -11.36, -10.99, -10.99, -10.65, -10.65, -10.25, -10.25, -10.25, -10.25, -10.53, -10.25, -10.25, -9.23, -9.23, -9.23, -8.97, -8.53, -8.28, -8.28, -7.82, -7.59, -7.11, -6.89, -6.64, -6.84, -5.87, -4.98, -5.2, -4.43, -4.58, -4.58, -4.58, -4.79, -4.17, -4.04, -3.9, -4.1, -3.35, -3.35, -3.23, -3.28, -2.56, -2.56, -2.46, -1.86, -1.98, -1.98, -2.19, -2.25, -1.45, -1.45, -1.56, -1.56, -1.5, -2.71, -1.18, 8.85, 11.18, 11.18, 11.18, 10.28, 10.58, 10.58, 10.52, 11.03, 11.2, 10.19, 7.82, 1.77, 0.0, 0.0, 2.97, 5.69, 5.83, 3.59, 0.0, -2.95, -2.79, -1.69, -0.77, 0.0, 0.0, 0.0, 0.0, 0.0, 0.0, 0.0, 1.13, 0.0, 0.0, 0.0, 1.83, 1.78, 1.78, -11.05, -11.05, -11.05, -11.05, -11.05, -10.99, -10.99, -10.65, -10.65, -10.25, -10.25, -10.25, -10.25, -10.53, -10.25, -9.49, -9.23, -9.23, -9.23, -8.77, -8.53, -8.28, -8.28, -7.82, -7.59, -7.59, -6.89, -6.89, -6.64, -6.15, -5.87, -5.15, -4.98, -4.98, -4.43, -4.58, -4.79, -4.17, -4.04, -4.04, -4.24, -4.1, -3.35, -3.23, -3.23, -3.11, -2.56, -2.56, -2.56, -2.6, -1.98, -2.06, -1.98, -2.02, -2.1, -1.45, -1.39, -1.39, -1.5, 0.0, 1.62, 10.4, 10.73, 11.18, 10.96, 10.84, 9.96, 10.96, 11.18, 11.61, 10.61, 9.8, 5.02, 1.94, 0.0, 2.03, 6.23, 7.84, 7.22, 3.92, 0.0, -2.65, -3.39, -3.3, -1.73, -0.67, 0.0, 0.0, 0.0, 0.0, 0.0, 0.0, 0.0, -1.38, -1.29, -1.17, 0.0, 0.0, -10.74, -10.74, -11.05, -11.05, -11.05, -10.69, -10.99, -10.65, -10.65, -10.25, -10.25, -10.25, -10.25, -9.81, -9.81, -9.49, -9.23, -9.23, -9.23, -8.77, -8.53, -8.28, -8.28, -7.59, -7.59, -7.59, -7.36, -6.89, -6.89, -6.4, -6.4, -5.87, -5.69, -4.98, -4.98, -4.43, -4.64, -4.64, -4.04, -4.04, -4.24, -4.1, -3.47, -3.35, -3.23, -3.23, -3.11, -2.66, -2.56, -2.56, -2.6, -2.6, -1.98, -1.98, -1.89, -1.93, -1.3, -1.3, -0.7, 0.0, 0.0, 3.52, 8.93, 10.08, 9.75, 10.0, 8.23, 10.52, 11.18, 11.06, 11.12, 9.84, 8.29, 6.31, 3.16, 1.02, 3.03, 5.65, 5.2, 3.57, 1.49, 0.0, 0.0, -0.99, -1.11, 0.0, 0.0, 0.0, 0.0, 0.0, 0.0, 0.0, 0.0, 0.0, -1.55, -1.43, -1.15, -1.15, -10.74, -10.74, -11.05, -11.05, -11.05, -10.69, -10.65, -10.65, -10.65, -10.25, -10.25, -10.25, -10.25, -9.81, -9.49, -9.49, -9.23, -9.23, -8.77, -8.77, -8.53, -8.28, -7.82, -7.59, -7.59, -7.59, -7.36, -6.89, -6.89, -6.4, -6.4, -5.87, -5.87, -5.69, -5.15, -4.98, -4.64, -4.64, -4.64, -4.64, -4.24, -4.1, -4.17, -3.14, -2.71, -3.41, -3.23, -3.11, -3.28, -3.15, -2.71, -2.6, -2.6, -1.98, -1.81, -1.81, -1.93, -1.24, -0.65, 0.0, 0.0, 2.28, 6.17, 8.43, 9.2, 7.9, 6.95, 9.55, 10.73, 10.73, 11.18, 11.6, 11.06, 10.08, 7.26, 2.09, 0.0, 0.0, -0.97, 0.0, 0.76, 2.25, 2.37, 1.61, 0.93, 1.08, 1.21, 0.0, 0.0, 0.0, 0.0, 0.0, 0.0, 0.0, 0.0, 0.0, 0.0, -1.21, -10.74, -10.74, -10.74, -11.05, -11.05, -10.69, -10.37, -10.37, -10.65, -10.25, -10.25, -9.97, -9.97, -9.23, -9.49, -9.23, -9.23, -8.77, -8.77, -8.77, -8.53, -8.53, -7.82, -7.59, -7.59, -7.36, -7.36, -6.89, -6.89, -6.89, -6.4, -6.4, -5.87, -5.87, -5.69, -5.15, -5.2, -5.2, -4.64, -4.64, -4.86, -4.1, -4.17, -3.14, -2.71, -2.76, -3.41, -4.02, -3.28, -3.15, -3.33, -2.6, -2.6, -2.49, -1.81, -1.81, -1.73, -1.16, -0.62, 0.0, 0.7, 2.28, 3.39, 6.64, 6.95, 7.59, 7.59, 9.75, 10.73, 11.18, 11.18, 12.79, 11.33, 8.97, 11.2, 9.36, 1.95, -2.98, -5.65, -4.46, -1.61, 0.0, 1.59, 2.56, 2.72, 2.63, 2.72, 2.11, 2.2, 1.21, 0.0, 0.0, 0.0, 0.0, -1.21, -0.99, -1.03, 0.0, -10.74, -10.74, -10.74, -10.74, -11.05, -10.69, -10.37, -10.37, -10.37, -9.97, -9.97, -9.97, -10.25, -9.49, -9.49, -9.49, -9.49, -9.23, -8.77, -8.53, -8.53, -8.28, -7.82, -7.59, -7.59, -7.36, -7.36, -6.89, -6.89, -6.89, -6.4, -6.4, -6.4, -5.87, -5.87, -5.87, -5.38, -5.2, -5.2, -4.64, -4.64, -4.7, -4.7, -4.24, -4.1, -3.28, -4.02, -4.02, -4.08, -3.92, -3.33, -3.2, -2.6, -2.49, -2.39, -1.81, -1.73, -1.18, -0.62, 0.0, 0.75, 1.54, 2.18, 3.65, 4.6, 5.7, 6.95, 9.75, 10.73, 11.18, 11.18, 11.18, 10.82, 9.09, 11.8, 16.09, 11.98, 3.49, -1.02, -5.15, -5.28, -3.25, 0.0, 0.96, 1.96, 1.77, 1.67, 1.72, 0.89, 0.92, 0.0, 0.0, -1.25, -1.06, -2.04, -2.04, -1.83, -1.03, -10.74, -10.74, -10.74, -10.74, -10.74, -10.08, -10.37, -10.37, -10.37, -9.97, -9.97, -10.25, -10.25, -9.49, -9.49, -9.49, -9.49, -8.77, -8.77, -8.53, -8.28, -7.82, -7.59, -7.59, -7.59, -7.36, -7.36, -6.89, -6.89, -6.89, -6.4, -6.2, -6.4, -6.4, -6.12, -6.12, -5.93, -5.38, -5.38, -5.38, -5.2, -4.7, -4.7, -4.77, -4.77, -4.24, -4.08, -3.92, -3.98, -3.39, -3.39, -3.25, -3.07, -2.49, -2.39, -1.73, -1.73, -1.18, -0.59, 0.0, 0.0, 1.54, 1.76, 1.93, 4.4, 4.6, 7.87, 10.41, 10.28, 11.18, 11.62, 11.18, 10.37, 8.66, 10.18, 13.02, 17.12, 12.99, 7.34, 5.33, 2.43, 2.09, 2.5, 2.0, 1.88, 0.84, 0.0, 0.0, 0.0, 0.0, 0.0, -1.1, -2.28, -2.11, -2.81, -2.92, -2.92, -2.92, -10.74, -10.74, -10.74, -10.74, -10.43, -10.08, -10.37, -10.37, -10.37, -9.97, -10.25, -10.25, -10.25, -9.92, -9.49, -9.49, -9.49, -9.23, -8.77, -8.53, -8.28, -7.82, -7.59, -7.59, -7.59, -7.59, -6.89, -6.89, -6.89, -6.89, -6.89, -6.4, -6.4, -6.66, -5.93, -6.12, -6.12, -6.12, -5.55, -5.38, -5.38, -5.2, -5.27, -5.27, -5.27, -4.7, -4.02, -3.2, -3.25, -3.25, -3.25, -3.11, -3.11, -3.11, -2.42, -2.28, -1.65, -1.18, -0.59, 0.0, 0.0, 0.74, 0.77, 1.93, 2.39, 2.39, 5.7, 9.97, 10.28, 11.18, 11.51, 10.6, 10.37, 9.62, 9.22, 7.2, 9.8, 14.19, 13.76, 11.16, 10.41, 9.41, 8.2, 6.02, 4.59, 2.72, 0.92, 0.0, -1.13, -2.35, -2.35, -2.35, -3.65, -3.53, -3.14, -4.1, -4.1, -4.1, -10.44, -10.44, -10.74, -10.74, -10.08, -10.08, -10.37, -10.37, -10.37, -9.97, -10.25, -10.25, -10.25, -9.92, -9.49, -9.49, -9.23, -9.23, -8.77, -8.28, -7.82, -7.59, -7.59, -7.59, -7.59, -7.59, -6.89, -6.89, -6.89, -6.89, -6.89, -6.4, -6.4, -6.66, -6.45, -6.12, -6.12, -6.12, -6.12, -5.55, -5.38, -5.2, -5.45, -5.27, -5.27, -4.7, -3.96, -3.28, -3.2, -3.07, -3.11, -3.11, -2.97, -2.42, -2.42, -2.3, -1.75, -1.12, -0.61, 0.0, 0.0, 0.0, 0.0, 0.0, 0.0, 2.39, 5.7, 10.41, 10.28, 11.18, 11.02, 10.18, 9.97, 9.17, 6.65, 5.64, 5.65, 9.72, 13.79, 15.57, 15.29, 14.61, 12.86, 9.8, 7.57, 5.15, 3.39, 0.98, -1.3, -4.52, -4.87, -4.38, -4.38, -4.58, -4.43, -4.81, -4.81, -4.81, -10.44, -10.44, -10.44, -10.08, -10.08, -10.08, -10.08, -10.08, -9.97, -9.97, -9.97, -9.97, -9.92, -9.66, -9.23, -9.23, -9.23, -8.97, -8.97, -8.28, -8.04, -7.59, -7.32, -7.32, -7.32, -7.36, -6.89, -6.89, -6.89, -6.89, -6.89, -6.89, -6.4, -6.66, -6.66, -6.66, -6.12, -6.12, -6.12, -6.12, -5.38, -5.38, -5.2, -5.27, -5.27, -4.54, -4.54, -3.82, -3.28, -3.33, -3.07, -3.11, -2.53, -2.42, -2.42, -1.67, -1.67, -1.14, -1.14, -0.65, 0.0, 0.0, 0.0, 0.0, 0.0, 2.39, 5.46, 8.05, 10.28, 10.73, 11.62, 9.75, 9.58, 8.85, 6.65, 5.81, 6.19, 6.98, 10.62, 15.65, 18.53, 17.87, 13.46, 9.98, 8.1, 6.52, 5.15, 3.16, 0.95, -1.38, -4.52, -5.6, -5.8, -4.81, -4.81, -5.08, -5.08, -5.08, -10.44, -10.44, -10.44, -9.79, -10.08, -9.79, -10.08, -10.08, -9.69, -9.97, -9.97, -9.97, -9.66, -9.66, -9.23, -8.97, -8.97, -8.97, -8.72, -8.28, -8.28, -7.32, -7.32, -7.32, -7.1, -7.36, -6.89, -6.89, -6.89, -6.89, -6.89, -6.89, -6.4, -6.66, -6.66, -6.66, -6.66, -6.12, -6.12, -6.12, -5.93, -6.0, -5.45, -5.27, -5.27, -4.54, -4.37, -4.02, -3.87, -3.87, -3.33, -3.2, -3.07, -2.53, -2.53, -1.75, -1.87, -1.2, -1.22, -0.62, -0.71, 0.0, 0.0, 0.0, 0.0, 0.0, 3.11, 7.15, 9.7, 10.28, 10.28, 10.18, 9.97, 8.85, 7.79, 7.34, 6.8, 6.34, 9.2, 12.01, 17.46, 18.33, 13.56, 9.6, 9.09, 6.75, 5.13, 2.87, 1.64, 0.0, -6.9, -7.54, -8.01, -6.63, -6.63, -7.02, -7.02, -7.02, -10.44, -10.44, -10.1, -10.1, -9.79, -9.79, -9.79, -10.08, -9.69, -9.69, -9.69, -9.39, -9.39, -9.39, -8.97, -8.97, -8.97, -8.72, -8.72, -8.28, -8.28, -7.76, -7.1, -7.1, -7.1, -7.1, -6.89, -6.89, -6.89, -6.89, -6.89, -6.89, -6.4, -6.66, -6.66, -6.66, -6.66, -6.12, -6.12, -5.93, -6.2, -6.0, -5.45, -5.27, -5.27, -5.08, -4.37, -4.6, -3.87, -3.87, -3.72, -3.2, -3.2, -3.07, -2.53, -2.53, -1.87, -1.78, -1.22, -1.22, -0.67, -0.71, 0.0, 0.0, 0.0, 0.0, 2.97, 7.81, 9.54, 9.7, 10.28, 11.02, 9.97, 8.85, 8.3, 7.79, 7.93, 7.66, 9.16, 11.18, 12.22, 14.38, 14.2, 13.69, 11.29, 7.22, 3.65, 1.48, 0.92, -2.54, -7.51, -8.85, -9.42, -8.53, -8.53, -8.53, -8.53, -8.53, -10.1, -10.1, -10.1, -9.8, -9.79, -9.79, -9.79, -9.42, -9.42, -9.69, -9.69, -9.39, -9.39, -9.39, -8.97, -8.72, -8.72, -8.72, -8.72, -8.28, -8.04, -7.76, -7.53, -7.1, -7.1, -7.1, -6.64, -6.64, -6.64, -6.89, -6.89, -6.89, -6.89, -6.66, -6.66, -6.66, -6.66, -6.66, -5.93, -5.93, -6.0, -6.0, -5.8, -5.27, -5.27, -5.08, -5.14, -4.6, -4.43, -3.87, -3.72, -3.33, -3.2, -3.2, -2.65, -2.53, -1.84, -1.87, -1.2, -1.22, -0.58, -0.67, 0.0, 0.0, 0.0, 0.0, 2.49, 8.18, 9.54, 9.7, 10.08, 10.52, 9.97, 8.53, 9.62, 9.48, 9.13, 8.94, 9.92, 11.06, 10.59, 11.6, 15.98, 17.17, 13.92, 8.1, 3.61, 1.43, 0.0, 0.0, -8.85, -11.21, -10.4, -9.58, -8.73, -8.38, -8.38, -8.38, -9.8, -9.8, -9.8, -9.8, -9.8, -9.5, -9.5, -9.42, -9.42, -9.42, -9.42, -9.12, -9.12, -9.12, -8.72, -8.72, -8.72, -8.72, -8.72, -8.04, -8.04, -7.8, -7.53, -7.1, -7.1, -7.1, -6.64, -6.64, -6.64, -6.89, -6.89, -7.11, -7.11, -6.6, -6.66, -6.66, -6.66, -6.45, -6.45, -6.0, -6.0, -5.8, -5.8, -5.27, -5.33, -5.33, -5.14, -4.6, -4.43, -4.43, -3.72, -3.92, -3.33, -3.2, -3.25, -2.65, -2.53, -1.97, -1.78, -1.14, -1.22, -0.58, 0.0, 0.0, 0.0, 0.0, 3.11, 6.95, 9.13, 9.7, 9.64, 10.28, 10.0, 9.42, 10.41, 10.55, 10.18, 10.09, 11.17, 10.92, 10.52, 11.18, 14.22, 15.75, 13.09, 7.52, 1.57, 0.0, 0.0, 2.06, 0.0, -11.28, -10.52, -9.96, -9.55, -9.13, -9.13, -9.13, -9.8, -9.8, -9.8, -9.8, -9.8, -9.5, -9.5, -9.14, -9.14, -9.42, -9.42, -9.12, -9.12, -9.12, -8.72, -8.97, -8.72, -8.72, -8.46, -8.04, -7.8, -7.8, -7.8, -7.53, -7.1, -7.1, -7.1, -6.64, -6.64, -6.64, -7.11, -7.11, -7.11, -6.6, -6.66, -6.66, -6.66, -6.45, -6.45, -6.0, -6.0, -5.8, -5.8, -5.6, -5.33, -5.33, -5.14, -5.14, -4.43, -4.43, -4.43, -3.92, -3.92, -3.2, -3.39, -3.25, -2.53, -2.42, -1.87, -1.78, -1.22, -1.16, -0.58, 0.0, 0.0, 0.0, 2.97, 7.27, 9.75, 10.14, 9.55, 8.18, 8.8, 10.0, 10.35, 10.41, 10.55, 10.99, 10.94, 10.43, 10.43, 10.43, 11.06, 10.83, 9.79, 2.99, 1.59, 0.0, 0.0, 1.84, 3.19, 0.0, -11.18, -10.73, -10.28, -9.83, -9.83, -9.83, -9.8, -9.5, -9.5, -9.5, -9.5, -9.5, -8.86, -9.14, -9.14, -9.14, -9.14, -8.85, -9.12, -9.39, -8.97, -8.72, -8.72, -8.46, -8.46, -7.8, -7.8, -7.8, -7.8, -7.8, -7.36, -7.1, -7.1, -6.64, -6.84, -6.84, -7.11, -7.11, -7.11, -6.6, -6.66, -6.66, -6.66, -6.45, -6.45, -6.0, -6.0, -5.8, -5.8, -5.86, -5.33, -5.14, -5.14, -5.14, -4.43, -4.43, -4.43, -4.43, -3.92, -3.77, -3.39, -3.25, -3.11, -2.58, -2.46, -1.87, -1.78, -1.22, -0.58, -0.58, 0.0, 0.0, 1.54, 6.64, 9.7, 10.14, 9.96, 9.2, 8.55, 9.33, 10.96, 10.4, 10.87, 11.26, 10.18, 10.43, 10.12, 10.12, 9.57, 6.81, 3.38, 2.25, 1.51, 0.0, -1.84, -2.19, 1.11, 0.86, -4.32, -11.18, -9.6, -6.95, -6.95, -6.95, -9.5, -9.5, -9.5, -9.5, -9.5, -9.5, -8.86, -8.86, -8.86, -9.14, -9.42, -9.12, -9.39, -9.12, -8.72, -8.72, -8.46, -8.46, -8.2, -7.8, -7.8, -7.8, -7.8, -7.8, -7.8, -7.36, -7.1, -7.32, -6.84, -6.84, -7.11, -7.11, -7.11, -7.11, -6.66, -6.66, -6.45, -6.45, -6.51, -6.51, -5.8, -5.8, -5.6, -5.86, -5.86, -5.14, -5.14, -5.14, -5.14, -4.43, -4.43, -4.43, -4.66, -3.92, -3.98, -3.25, -3.11, -3.16, -2.46, -2.46, -1.91, -1.81, -1.22, -0.58, 0.0, 0.0, 0.0, 6.64, 9.83, 9.39, 9.13, 9.2, 8.93, 9.2, 10.08, 10.6, 11.09, 10.87, 9.96, 9.17, 10.09, 10.36, 8.68, 4.15, 2.51, 2.31, 1.46, 0.0, -1.09, -6.21, -4.58, -1.71, -2.28, -8.22, -4.8, -0.0, -0.0, -0.0, -9.21, -9.21, -9.21, -9.21, -9.5, -9.16, -8.86, -8.86, -9.14, -9.42, -9.42, -9.42, -9.12, -9.12, -8.72, -8.46, -8.46, -8.75, -8.2, -7.8, -7.8, -7.8, -7.8, -7.8, -7.8, -7.59, -7.59, -7.32, -6.84, -6.84, -7.11, -7.11, -7.11, -6.89, -6.66, -6.66, -6.45, -6.45, -6.51, -6.51, -5.8, -5.8, -5.86, -5.86, -5.86, -5.14, -5.14, -5.14, -5.4, -5.14, -4.6, -4.6, -4.66, -3.92, -3.98, -3.25, -3.11, -3.16, -2.46, -2.46, -2.5, -1.81, -1.16, -1.16, -0.63, -0.69, 0.0, 4.22, 10.28, 10.28, 9.97, 9.2, 7.27, 8.03, 8.82, 10.18, 11.03, 10.04, 9.62, 9.62, 10.55, 10.43, 7.8, 7.11, 5.91, 3.72, 1.51, 0.0, -2.37, -8.22, -7.9, -4.68, -2.71, 0.0, 10.73, 10.28, 10.28, 10.28, -9.21, -9.21, -9.21, -9.21, -9.21, -9.16, -9.16, -9.14, -9.14, -9.14, -9.14, -9.42, -9.14, -8.85, -8.46, -8.75, -8.75, -8.75, -8.46, -7.8, -8.04, -8.04, -8.04, -8.04, -8.04, -7.59, -7.82, -7.82, -7.59, -6.84, -7.11, -7.11, -6.89, -6.89, -6.66, -6.45, -6.45, -6.45, -6.51, -6.51, -5.8, -5.8, -5.86, -5.86, -5.86, -5.14, -5.14, -5.4, -5.4, -5.4, -4.84, -4.84, -4.66, -3.92, -3.77, -3.82, -3.11, -3.16, -3.01, -2.46, -2.5, -1.81, -1.71, -1.25, -0.67, -0.73, -0.89, 0.0, 9.2, 9.6, 10.18, 8.93, 7.59, 8.23, 7.87, 8.8, 9.96, 9.97, 10.41, 10.41, 10.41, 10.3, 9.84, 9.14, 8.02, 5.19, 2.72, 0.0, -4.8, -11.02, -9.7, -7.26, 0.0, 11.18, 11.18, 8.8, 8.8, 8.8, -9.5, -9.5, -9.21, -9.21, -9.16, -9.16, -9.16, -8.86, -9.14, -9.14, -9.14, -9.14, -9.14, -8.75, -8.75, -8.75, -8.75, -8.75, -8.75, -8.04, -8.04, -8.04, -8.04, -8.28, -8.28, -7.82, -7.82, -7.59, -7.59, -7.11, -7.11, -6.89, -6.89, -6.89, -6.66, -6.45, -6.45, -6.25, -6.51, -6.3, -5.8, -5.8, -5.86, -5.86, -5.86, -5.14, -5.4, -5.4, -5.4, -5.4, -5.4, -4.84, -4.66, -4.48, -3.77, -3.82, -3.65, -3.16, -3.16, -2.46, -2.5, -2.37, -1.81, -1.95, -1.32, -1.32, -0.85, 0.0, 2.06, 9.6, 9.6, 5.95, 5.95, 7.27, 8.23, 7.27, 7.27, 10.0, 9.3, 10.35, 10.01, 7.93, 6.64, 5.62, 6.94, 5.01, 3.2, 2.02, -5.0, -9.58, -10.4, -0.0, 11.62, 9.67, 10.0, 9.55, 9.55, 9.55, -9.5, -9.5, -9.5, -9.21, -8.87, -8.87, -8.87, -8.86, -8.86, -8.86, -8.86, -8.86, -9.14, -8.75, -8.75, -8.75, -8.75, -9.02, -9.02, -8.28, -8.28, -8.28, -8.28, -8.28, -7.82, -7.82, -7.82, -7.59, -7.59, -7.11, -6.89, -6.89, -6.89, -6.89, -6.45, -6.45, -6.45, -6.25, -6.51, -6.3, -5.8, -5.8, -5.86, -5.86, -5.86, -5.86, -5.4, -5.4, -5.4, -5.4, -5.4, -4.66, -4.48, -4.48, -3.77, -3.82, -3.65, -3.31, -3.16, -3.01, -2.63, -2.5, -1.81, -1.95, -1.32, -1.4, -1.52, -1.05, 0.0, 4.6, 4.6, 5.95, 7.27, 6.95, 6.95, 6.95, 6.95, 8.55, 7.59, 8.22, 5.8, 2.28, 0.0, 0.0, 1.13, 1.07, 1.53, 1.69, 0.0, -9.3, -0.0, 11.03, 10.8, 8.22, 8.73, 8.59, 8.59, 8.59, -9.5, -9.5, -9.5, -9.17, -8.87, -8.87, -8.87, -8.87, -8.59, -8.86, -8.86, -9.14, -8.75, -8.75, -9.02, -9.02, -9.02, -9.02, -8.58, -8.58, -8.28, -8.28, -8.58, -8.58, -7.59, -7.82, -7.59, -7.59, -7.36, -7.36, -6.89, -6.89, -6.89, -6.68, -6.45, -6.45, -6.25, -6.25, -6.51, -6.3, -5.8, -5.8, -5.86, -5.86, -5.86, -5.86, -5.4, -5.4, -5.4, -5.4, -5.4, -4.66, -4.48, -4.48, -4.3, -3.82, -3.65, -3.87, -3.16, -3.01, -3.21, -2.5, -2.37, -2.06, -2.06, -1.4, -1.6, -1.94, -1.26, 0.0, 4.6, 5.7, 6.95, 6.64, 6.64, 6.64, 6.64, 6.64, 8.55, 6.45, 3.04, 0.0, -1.63, -2.65, -2.25, -1.07, 0.0, 0.0, 0.85, 0.0, 3.14, 9.17, 7.19, 6.87, 8.15, 8.85, 8.85, 8.85, -9.19, -9.19, -9.19, -9.17, -8.87, -8.87, -8.87, -8.87, -8.87, -8.86, -8.86, -9.14, -8.75, -9.02, -9.02, -9.02, -9.02, -9.02, -8.58, -8.58, -8.58, -8.33, -8.58, -8.58, -7.88, -7.88, -7.59, -7.36, -7.36, -7.36, -6.89, -6.89, -6.89, -6.68, -6.45, -6.25, -6.25, -6.25, -6.3, -6.3, -5.8, -6.07, -6.07, -5.86, -5.86, -5.86, -5.4, -5.4, -5.4, -5.4, -5.2, -5.0, -4.48, -4.3, -4.54, -4.35, -3.82, -3.65, -3.7, -3.01, -3.05, -3.05, -2.5, -2.69, -2.06, -2.06, -2.17, -2.57, -2.17, 0.0, 2.28, 3.53, 5.7, 5.21, 5.21, 5.21, 5.21, 5.46, 3.25, 2.82, 2.45, 0.0, -2.89, -3.47, -3.38, -2.13, -0.83, 0.0, 1.48, 2.34, 3.49, 4.05, 4.24, 6.0, 6.67, 7.19, 7.19, 7.19, -9.19, -9.19, -8.87, -8.87, -8.87, -8.87, -8.87, -8.87, -8.87, -9.16, -8.86, -8.75, -8.75, -9.02, -9.02, -9.02, -9.02, -8.58, -8.58, -8.58, -8.33, -8.33, -8.58, -8.58, -7.88, -7.88, -7.64, -7.64, -7.64, -7.64, -6.89, -6.89, -6.68, -6.2, -6.45, -6.25, -6.25, -6.04, -6.3, -6.3, -5.8, -6.07, -6.07, -6.07, -5.86, -5.86, -5.92, -5.4, -5.4, -5.4, -5.2, -5.0, -4.48, -4.3, -4.35, -4.35, -3.82, -3.65, -3.7, -3.01, -3.01, -3.05, -2.5, -2.69, -2.69, -2.06, -2.17, -2.35, -1.94, -1.47, 0.0, 0.0, 0.0, 0.0, 2.97, 0.0, 0.0, 3.11, 0.0, 0.0, 0.0, 0.0, -2.56, -3.28, -3.28, -1.11, 0.0, 1.58, 2.85, 3.68, 4.34, 4.01, 4.16, 4.36, 4.99, 6.67, 6.67, 6.67, -8.87, -8.87, -8.87, -8.87, -8.87, -8.87, -8.59, -8.87, -8.87, -9.16, -8.78, -8.75, -8.75, -8.75, -8.75, -8.75, -8.75, -8.33, -8.33, -8.33, -8.33, -8.33, -8.33, -8.33, -7.88, -7.64, -7.64, -7.64, -7.64, -7.64, -7.17, -6.94, -6.94, -6.45, -6.25, -6.25, -6.25, -6.3, -6.3, -6.3, -5.8, -6.07, -6.07, -5.86, -5.86, -5.86, -5.92, -5.4, -5.4, -5.2, -5.2, -5.0, -5.0, -4.3, -4.54, -4.35, -4.35, -3.65, -3.7, -3.7, -3.01, -3.05, -3.05, -2.5, -2.69, -2.5, -2.83, -2.35, -2.83, -1.26, 0.0, 0.0, 0.0, 0.0, 0.0, 0.0, 0.0, 0.0, 0.0, 0.0, 0.0, 0.0, -1.25, -2.09, -1.1, 0.0, 2.77, 3.97, 4.8, 4.88, 5.6, 5.01, 4.85, 4.27, 4.99, 5.8, 5.8, 5.8, -8.87, -8.87, -8.87, -8.87, -8.87, -8.87, -8.59, -8.87, -8.87, -9.16, -8.78, -8.75, -8.75, -8.75, -8.75, -8.75, -8.75, -8.33, -8.33, -8.33, -8.33, -8.33, -8.33, -8.33, -7.88, -7.64, -7.64, -7.64, -7.64, -7.64, -7.17, -6.94, -6.94, -6.45, -6.25, -6.25, -6.25, -6.3, -6.3, -6.3, -5.8, -6.07, -6.07, -5.86, -5.86, -5.86, -5.92, -5.4, -5.4, -5.2, -5.2, -5.0, -5.0, -4.3, -4.54, -4.35, -4.35, -3.65, -3.7, -3.7, -3.01, -3.05, -3.05, -2.5, -2.69, -2.5, -2.83, -2.35, -2.83, -1.26, 0.0, 0.0, 0.0, 0.0, 0.0, 0.0, 0.0, 0.0, 0.0, 0.0, 0.0, 0.0, 0.0, 0.0, 0.0, 1.06, 3.06, 4.12, 5.66, 6.4, 6.36, 6.31, 5.76, 5.21, 4.1, 4.55, 4.55, 4.55]}]